Wetterdaten: Freitag, 13.10.2023
Datum Zeit Temp. Aussen Temp. o. S. Temp +5cm Feuchte Auss Luftdruck Regen Sonnenschein Regendauer Solar Windben Empfang
13.10.2023 00:00 16,9 C 16,1 C 12,2 C 98 % 1013,7 hPa 0,0 l/m 0 min 0 min 0 W/m 16,1 km/h (3 Bft) 97,87 %
13.10.2023 00:02 16,9 C 16,1 C 12,2 C 98 % 1013,6 hPa 0,0 l/m 0 min 0 min 0 W/m 16,1 km/h (3 Bft) 95,12 %
13.10.2023 00:04 16,9 C 16,1 C 12,2 C 98 % 1013,6 hPa 0,0 l/m 0 min 0 min 0 W/m 16,1 km/h (3 Bft) 97,62 %
13.10.2023 00:10 16,9 C 16,1 C 12,2 C 98 % 1013,7 hPa 0,0 l/m 0 min 0 min 0 W/m 12,9 km/h (3 Bft) 97,87 %
13.10.2023 00:12 16,9 C 16,1 C 12,2 C 98 % 1013,6 hPa 0,0 l/m 0 min 0 min 0 W/m 9,7 km/h (2 Bft) 97,87 %
13.10.2023 00:16 16,9 C 16,1 C 12,2 C 98 % 1013,6 hPa 0,0 l/m 0 min 0 min 0 W/m 9,7 km/h (2 Bft) 96,77 %
13.10.2023 00:18 16,9 C 16,1 C 12,2 C 98 % 1013,6 hPa 0,0 l/m 0 min 0 min 0 W/m 9,7 km/h (2 Bft) 97,87 %
13.10.2023 00:20 16,8 C 16,1 C 12,2 C 98 % 1013,5 hPa 0,0 l/m 0 min 0 min 0 W/m 6,4 km/h (2 Bft) 97,87 %
13.10.2023 00:22 16,8 C 16,1 C 12,2 C 98 % 1013,5 hPa 0,0 l/m 0 min 0 min 0 W/m 9,7 km/h (2 Bft) 97,87 %
13.10.2023 00:24 16,8 C 16,1 C 12,2 C 98 % 1013,5 hPa 0,0 l/m 0 min 0 min 0 W/m 9,7 km/h (2 Bft) 97,87 %
13.10.2023 00:26 16,8 C 16,1 C 12,2 C 98 % 1013,5 hPa 0,0 l/m 0 min 0 min 0 W/m 9,7 km/h (2 Bft) 100,00 %
13.10.2023 00:28 16,8 C 16,1 C 12,2 C 98 % 1013,5 hPa 0,0 l/m 0 min 0 min 0 W/m 3,2 km/h (1 Bft) 100,00 %
13.10.2023 00:30 16,8 C 16,1 C 12,2 C 98 % 1013,5 hPa 0,0 l/m 0 min 0 min 0 W/m 6,4 km/h (2 Bft) 100,00 %
13.10.2023 00:32 16,8 C 16,1 C 12,2 C 98 % 1013,5 hPa 0,0 l/m 0 min 0 min 0 W/m 6,4 km/h (2 Bft) 97,83 %
13.10.2023 00:34 16,8 C 16,1 C 12,2 C 98 % 1013,4 hPa 0,0 l/m 0 min 0 min 0 W/m 9,7 km/h (2 Bft) 100,00 %
13.10.2023 00:36 16,8 C 16,1 C 12,2 C 98 % 1013,5 hPa 0,0 l/m 0 min 0 min 0 W/m 12,9 km/h (3 Bft) 97,87 %
13.10.2023 00:38 16,8 C 16,1 C 12,2 C 98 % 1013,5 hPa 0,0 l/m 0 min 0 min 0 W/m 6,4 km/h (2 Bft) 100,00 %
13.10.2023 00:40 16,8 C 16,1 C 12,2 C 98 % 1013,5 hPa 0,0 l/m 0 min 0 min 0 W/m 6,4 km/h (2 Bft) 97,87 %
13.10.2023 00:42 16,8 C 16,1 C 12,2 C 98 % 1013,6 hPa 0,0 l/m 0 min 0 min 0 W/m 3,2 km/h (1 Bft) 100,00 %
13.10.2023 00:44 16,8 C 16,1 C 12,2 C 98 % 1013,6 hPa 0,0 l/m 0 min 0 min 0 W/m 3,2 km/h (1 Bft) 100,00 %
13.10.2023 00:46 16,8 C 16,1 C 12,2 C 98 % 1013,6 hPa 0,0 l/m 0 min 0 min 0 W/m 9,7 km/h (2 Bft) 100,00 %
13.10.2023 00:48 16,8 C 16,1 C 12,2 C 98 % 1013,6 hPa 0,0 l/m 0 min 0 min 0 W/m 6,4 km/h (2 Bft) 100,00 %
13.10.2023 00:50 16,8 C 16,1 C 12,2 C 98 % 1013,6 hPa 0,0 l/m 0 min 0 min 0 W/m 6,4 km/h (2 Bft) 100,00 %
13.10.2023 00:52 16,8 C 16,1 C 12,2 C 98 % 1013,6 hPa 0,0 l/m 0 min 0 min 0 W/m 9,7 km/h (2 Bft) 100,00 %
13.10.2023 00:54 16,8 C 16,1 C 12,2 C 98 % 1013,6 hPa 0,0 l/m 0 min 0 min 0 W/m 9,7 km/h (2 Bft) 100,00 %
13.10.2023 00:56 16,8 C 16,1 C 12,2 C 98 % 1013,6 hPa 0,0 l/m 0 min 0 min 0 W/m 12,9 km/h (3 Bft) 100,00 %
13.10.2023 00:58 16,8 C 16,1 C 12,2 C 98 % 1013,5 hPa 0,0 l/m 0 min 0 min 0 W/m 6,4 km/h (2 Bft) 96,97 %
13.10.2023 01:00 16,8 C 16,1 C 12,2 C 98 % 1013,6 hPa 0,0 l/m 0 min 0 min 0 W/m 9,7 km/h (2 Bft) 100,00 %
13.10.2023 01:02 16,8 C 16,1 C 12,2 C 98 % 1013,6 hPa 0,0 l/m 0 min 0 min 0 W/m 6,4 km/h (2 Bft) 95,74 %
13.10.2023 01:04 16,8 C 16,1 C 12,2 C 98 % 1013,6 hPa 0,0 l/m 0 min 0 min 0 W/m 9,7 km/h (2 Bft) 100,00 %
13.10.2023 01:08 16,8 C 16,1 C 12,2 C 98 % 1013,6 hPa 0,0 l/m 0 min 0 min 0 W/m 9,7 km/h (2 Bft) 99,06 %
13.10.2023 01:10 16,8 C 16,1 C 12,2 C 98 % 1013,7 hPa 0,0 l/m 0 min 0 min 0 W/m 9,7 km/h (2 Bft) 97,37 %
13.10.2023 01:12 16,8 C 16,1 C 12,2 C 98 % 1013,6 hPa 0,0 l/m 0 min 0 min 0 W/m 3,2 km/h (1 Bft) 100,00 %
13.10.2023 01:14 16,8 C 16,1 C 12,2 C 98 % 1013,6 hPa 0,0 l/m 0 min 0 min 0 W/m 6,4 km/h (2 Bft) 93,62 %
13.10.2023 01:16 16,8 C 16,1 C 12,2 C 98 % 1013,6 hPa 0,0 l/m 0 min 0 min 0 W/m 9,7 km/h (2 Bft) 95,74 %
13.10.2023 01:18 16,8 C 16,1 C 12,2 C 98 % 1013,6 hPa 0,0 l/m 0 min 0 min 0 W/m 6,4 km/h (2 Bft) 95,74 %
13.10.2023 01:20 16,8 C 16,1 C 12,2 C 98 % 1013,6 hPa 0,0 l/m 0 min 0 min 0 W/m 9,7 km/h (2 Bft) 93,48 %
13.10.2023 01:22 16,8 C 16,1 C 12,2 C 98 % 1013,6 hPa 0,0 l/m 0 min 0 min 0 W/m 3,2 km/h (1 Bft) 95,74 %
13.10.2023 01:24 16,8 C 16,1 C 12,2 C 98 % 1013,6 hPa 0,0 l/m 0 min 0 min 0 W/m 3,2 km/h (1 Bft) 93,62 %
13.10.2023 01:26 16,8 C 16,1 C 12,2 C 98 % 1013,6 hPa 0,0 l/m 0 min 0 min 0 W/m 3,2 km/h (1 Bft) 95,74 %
13.10.2023 01:28 16,8 C 16,1 C 12,2 C 98 % 1013,6 hPa 0,0 l/m 0 min 0 min 0 W/m 6,4 km/h (2 Bft) 95,74 %
13.10.2023 01:30 16,8 C 16,1 C 12,2 C 98 % 1013,6 hPa 0,0 l/m 0 min 0 min 0 W/m 6,4 km/h (2 Bft) 91,49 %
13.10.2023 01:32 16,8 C 16,1 C 12,2 C 98 % 1013,5 hPa 0,0 l/m 0 min 0 min 0 W/m 3,2 km/h (1 Bft) 93,62 %
13.10.2023 01:34 16,8 C 16,1 C 12,2 C 98 % 1013,6 hPa 0,0 l/m 0 min 0 min 0 W/m 9,7 km/h (2 Bft) 93,48 %
13.10.2023 01:36 16,8 C 16,1 C 12,2 C 98 % 1013,6 hPa 0,0 l/m 0 min 0 min 0 W/m 9,7 km/h (2 Bft) 95,74 %
13.10.2023 01:38 16,8 C 16,1 C 12,2 C 98 % 1013,6 hPa 0,0 l/m 0 min 0 min 0 W/m 6,4 km/h (2 Bft) 95,74 %
13.10.2023 01:40 16,8 C 16,1 C 12,2 C 98 % 1013,6 hPa 0,0 l/m 0 min 0 min 0 W/m 6,4 km/h (2 Bft) 97,87 %
13.10.2023 01:42 16,8 C 16,1 C 12,2 C 98 % 1013,6 hPa 0,0 l/m 0 min 0 min 0 W/m 6,4 km/h (2 Bft) 97,87 %
13.10.2023 01:44 16,8 C 16,1 C 12,2 C 98 % 1013,5 hPa 0,0 l/m 0 min 0 min 0 W/m 19,3 km/h (3 Bft) 97,87 %
13.10.2023 01:46 16,8 C 16,1 C 12,2 C 98 % 1013,6 hPa 0,0 l/m 0 min 0 min 0 W/m 9,7 km/h (2 Bft) 97,87 %
13.10.2023 01:48 16,9 C 16,1 C 12,2 C 98 % 1013,6 hPa 0,0 l/m 0 min 0 min 0 W/m 16,1 km/h (3 Bft) 93,62 %
13.10.2023 01:50 16,9 C 16,1 C 12,2 C 98 % 1013,5 hPa 0,0 l/m 0 min 0 min 0 W/m 6,4 km/h (2 Bft) 97,87 %
13.10.2023 01:52 16,9 C 16,1 C 12,2 C 98 % 1013,5 hPa 0,0 l/m 0 min 0 min 0 W/m 6,4 km/h (2 Bft) 97,83 %
13.10.2023 01:54 16,9 C 16,1 C 12,2 C 98 % 1013,5 hPa 0,0 l/m 0 min 0 min 0 W/m 12,9 km/h (3 Bft) 97,87 %
13.10.2023 01:56 16,9 C 16,1 C 12,2 C 98 % 1013,5 hPa 0,0 l/m 0 min 0 min 0 W/m 12,9 km/h (3 Bft) 97,87 %
13.10.2023 01:58 16,9 C 16,1 C 12,2 C 98 % 1013,5 hPa 0,0 l/m 0 min 0 min 0 W/m 12,9 km/h (3 Bft) 100,00 %
13.10.2023 02:00 16,9 C 16,7 C 12,2 C 98 % 1013,5 hPa 0,0 l/m 0 min 0 min 0 W/m 12,9 km/h (3 Bft) 97,87 %
13.10.2023 02:02 17,0 C 16,7 C 12,2 C 98 % 1013,5 hPa 0,0 l/m 0 min 0 min 0 W/m 12,9 km/h (3 Bft) 97,87 %
13.10.2023 02:04 17,0 C 16,7 C 12,2 C 98 % 1013,5 hPa 0,0 l/m 0 min 0 min 0 W/m 16,1 km/h (3 Bft) 100,00 %
13.10.2023 02:06 17,0 C 16,7 C 12,8 C 98 % 1013,5 hPa 0,0 l/m 0 min 2 min 0 W/m 9,7 km/h (2 Bft) 100,00 %
13.10.2023 02:08 17,1 C 16,7 C 12,8 C 98 % 1013,4 hPa 0,0 l/m 0 min 0 min 0 W/m 12,9 km/h (3 Bft) 97,87 %
13.10.2023 02:10 17,1 C 16,7 C 12,8 C 98 % 1013,4 hPa 0,0 l/m 0 min 0 min 0 W/m 6,4 km/h (2 Bft) 98,51 %
13.10.2023 02:12 17,1 C 16,7 C 12,8 C 98 % 1013,4 hPa 0,0 l/m 0 min 0 min 0 W/m 6,4 km/h (2 Bft) 100,00 %
13.10.2023 02:14 17,1 C 16,7 C 12,8 C 98 % 1013,4 hPa 0,0 l/m 0 min 0 min 0 W/m 6,4 km/h (2 Bft) 100,00 %
13.10.2023 02:16 17,1 C 16,7 C 12,8 C 98 % 1013,3 hPa 0,0 l/m 0 min 0 min 0 W/m 16,1 km/h (3 Bft) 100,00 %
13.10.2023 02:18 17,1 C 16,7 C 12,8 C 98 % 1013,3 hPa 0,0 l/m 0 min 0 min 0 W/m 12,9 km/h (3 Bft) 97,87 %
13.10.2023 02:20 17,2 C 16,7 C 12,8 C 98 % 1013,3 hPa 0,0 l/m 0 min 0 min 0 W/m 9,7 km/h (2 Bft) 97,87 %
13.10.2023 02:22 17,2 C 16,7 C 12,8 C 98 % 1013,3 hPa 0,0 l/m 0 min 0 min 0 W/m 6,4 km/h (2 Bft) 97,83 %
13.10.2023 02:24 17,2 C 16,7 C 12,8 C 98 % 1013,3 hPa 0,0 l/m 0 min 0 min 0 W/m 9,7 km/h (2 Bft) 95,74 %
13.10.2023 02:26 17,2 C 16,7 C 12,8 C 98 % 1013,3 hPa 0,0 l/m 0 min 0 min 0 W/m 9,7 km/h (2 Bft) 93,62 %
13.10.2023 02:28 17,2 C 16,7 C 12,8 C 98 % 1013,3 hPa 0,0 l/m 0 min 0 min 0 W/m 9,7 km/h (2 Bft) 97,87 %
13.10.2023 02:30 17,2 C 16,7 C 12,8 C 98 % 1013,2 hPa 0,0 l/m 0 min 0 min 0 W/m 12,9 km/h (3 Bft) 97,87 %
13.10.2023 02:32 17,2 C 16,7 C 12,8 C 98 % 1013,2 hPa 0,0 l/m 0 min 0 min 0 W/m 9,7 km/h (2 Bft) 95,74 %
13.10.2023 02:34 17,2 C 16,7 C 12,8 C 98 % 1013,2 hPa 0,0 l/m 0 min 0 min 0 W/m 9,7 km/h (2 Bft) 97,83 %
13.10.2023 02:36 17,2 C 16,7 C 12,8 C 98 % 1013,1 hPa 0,0 l/m 0 min 0 min 0 W/m 16,1 km/h (3 Bft) 97,87 %
13.10.2023 02:38 17,2 C 16,7 C 12,8 C 98 % 1013,1 hPa 0,0 l/m 0 min 0 min 0 W/m 6,4 km/h (2 Bft) 97,87 %
13.10.2023 02:40 17,3 C 16,7 C 12,8 C 98 % 1013,0 hPa 0,0 l/m 0 min 0 min 0 W/m 19,3 km/h (3 Bft) 97,87 %
13.10.2023 02:42 17,3 C 16,7 C 12,8 C 98 % 1013,0 hPa 0,0 l/m 0 min 0 min 0 W/m 6,4 km/h (2 Bft) 97,87 %
13.10.2023 02:44 17,3 C 16,7 C 12,8 C 98 % 1013,0 hPa 0,0 l/m 0 min 0 min 0 W/m 6,4 km/h (2 Bft) 97,87 %
13.10.2023 02:46 17,3 C 16,7 C 12,8 C 98 % 1012,9 hPa 0,0 l/m 0 min 0 min 0 W/m 12,9 km/h (3 Bft) 97,83 %
13.10.2023 02:48 17,3 C 16,7 C 12,8 C 98 % 1013,0 hPa 0,0 l/m 0 min 0 min 0 W/m 0,0 km/h (0 Bft) 93,62 %
13.10.2023 02:50 17,3 C 16,7 C 12,8 C 98 % 1013,0 hPa 0,0 l/m 0 min 0 min 0 W/m 6,4 km/h (2 Bft) 97,87 %
13.10.2023 02:52 17,3 C 16,7 C 12,8 C 98 % 1013,0 hPa 0,0 l/m 0 min 0 min 0 W/m 9,7 km/h (2 Bft) 97,87 %
13.10.2023 02:54 17,3 C 16,7 C 12,8 C 98 % 1013,0 hPa 0,0 l/m 0 min 0 min 0 W/m 6,4 km/h (2 Bft) 97,87 %
13.10.2023 02:56 17,3 C 16,7 C 12,8 C 98 % 1013,0 hPa 0,0 l/m 0 min 0 min 0 W/m 9,7 km/h (2 Bft) 95,74 %
13.10.2023 02:58 17,3 C 16,7 C 12,8 C 98 % 1013,0 hPa 0,0 l/m 0 min 0 min 0 W/m 12,9 km/h (3 Bft) 97,83 %
13.10.2023 03:00 17,3 C 16,7 C 12,8 C 98 % 1012,9 hPa 0,0 l/m 0 min 0 min 0 W/m 12,9 km/h (3 Bft) 97,87 %
13.10.2023 03:02 17,3 C 16,7 C 12,8 C 98 % 1012,9 hPa 0,0 l/m 0 min 0 min 0 W/m 12,9 km/h (3 Bft) 97,87 %
13.10.2023 03:04 17,3 C 16,7 C 12,8 C 98 % 1012,9 hPa 0,0 l/m 0 min 0 min 0 W/m 6,4 km/h (2 Bft) 97,92 %
13.10.2023 03:08 17,3 C 16,7 C 12,8 C 98 % 1012,9 hPa 0,0 l/m 0 min 0 min 0 W/m 12,9 km/h (3 Bft) 97,59 %
13.10.2023 03:10 17,3 C 16,7 C 12,8 C 98 % 1012,8 hPa 0,0 l/m 0 min 0 min 0 W/m 9,7 km/h (2 Bft) 97,87 %
13.10.2023 03:12 17,3 C 16,7 C 12,8 C 98 % 1012,8 hPa 0,0 l/m 0 min 0 min 0 W/m 12,9 km/h (3 Bft) 97,87 %
13.10.2023 03:14 17,3 C 16,7 C 12,8 C 98 % 1012,8 hPa 0,0 l/m 0 min 0 min 0 W/m 9,7 km/h (2 Bft) 97,87 %
13.10.2023 03:16 17,3 C 16,7 C 12,8 C 98 % 1012,7 hPa 0,0 l/m 0 min 0 min 0 W/m 12,9 km/h (3 Bft) 93,62 %
13.10.2023 03:18 17,3 C 16,7 C 12,8 C 98 % 1012,7 hPa 0,0 l/m 0 min 0 min 0 W/m 6,4 km/h (2 Bft) 97,87 %
13.10.2023 03:20 17,3 C 16,7 C 12,8 C 98 % 1012,7 hPa 0,0 l/m 0 min 0 min 0 W/m 12,9 km/h (3 Bft) 97,87 %
13.10.2023 03:22 17,3 C 16,7 C 12,8 C 98 % 1012,7 hPa 0,0 l/m 0 min 0 min 0 W/m 6,4 km/h (2 Bft) 95,65 %
13.10.2023 03:24 17,3 C 16,7 C 12,8 C 98 % 1012,7 hPa 0,0 l/m 0 min 0 min 0 W/m 6,4 km/h (2 Bft) 97,87 %
13.10.2023 03:26 17,3 C 16,7 C 12,8 C 98 % 1012,6 hPa 0,0 l/m 0 min 0 min 0 W/m 6,4 km/h (2 Bft) 97,87 %
13.10.2023 03:28 17,3 C 16,7 C 12,8 C 98 % 1012,6 hPa 0,0 l/m 0 min 0 min 0 W/m 6,4 km/h (2 Bft) 97,87 %
13.10.2023 03:30 17,3 C 16,7 C 12,8 C 98 % 1012,6 hPa 0,0 l/m 0 min 0 min 0 W/m 6,4 km/h (2 Bft) 97,87 %
13.10.2023 03:32 17,3 C 16,7 C 12,8 C 98 % 1012,6 hPa 0,0 l/m 0 min 0 min 0 W/m 9,7 km/h (2 Bft) 97,87 %
13.10.2023 03:40 17,3 C 16,7 C 12,8 C 98 % 1012,4 hPa 0,0 l/m 0 min 0 min 0 W/m 6,4 km/h (2 Bft) 100,00 %
13.10.2023 03:41 17,3 C 16,7 C 12,8 C 98 % 1012,4 hPa 0,0 l/m 0 min 0 min 0 W/m 3,2 km/h (1 Bft) 95,65 %
13.10.2023 03:46 17,3 C 16,7 C 12,8 C 98 % 1012,4 hPa 0,0 l/m 0 min 0 min 0 W/m 3,2 km/h (1 Bft) 95,92 %
13.10.2023 03:48 17,3 C 16,7 C 12,8 C 98 % 1012,3 hPa 0,0 l/m 0 min 0 min 0 W/m 3,2 km/h (1 Bft) 97,87 %
13.10.2023 03:50 17,3 C 16,7 C 12,8 C 98 % 1012,2 hPa 0,0 l/m 0 min 0 min 0 W/m 6,4 km/h (2 Bft) 82,61 %
13.10.2023 03:52 17,3 C 16,7 C 12,8 C 98 % 1012,2 hPa 0,0 l/m 0 min 0 min 0 W/m 3,2 km/h (1 Bft) 55,17 %
13.10.2023 03:54 17,3 C 16,1 C 12,8 C 98 % 1012,2 hPa 0,0 l/m 0 min 0 min 0 W/m 3,2 km/h (1 Bft) 97,87 %
13.10.2023 03:56 17,3 C 16,1 C 12,8 C 98 % 1012,2 hPa 0,0 l/m 0 min 0 min 0 W/m 3,2 km/h (1 Bft) 97,87 %
13.10.2023 03:58 17,3 C 16,1 C 12,8 C 98 % 1012,1 hPa 0,0 l/m 0 min 2 min 0 W/m 0,0 km/h (0 Bft) 100,00 %
13.10.2023 04:00 17,3 C 16,1 C 12,8 C 98 % 1012,1 hPa 0,0 l/m 0 min 0 min 0 W/m 0,0 km/h (0 Bft) 98,04 %
13.10.2023 04:02 17,3 C 16,1 C 12,8 C 98 % 1012,1 hPa 0,0 l/m 0 min 0 min 0 W/m 3,2 km/h (1 Bft) 95,45 %
13.10.2023 04:04 17,3 C 16,1 C 12,8 C 98 % 1012,0 hPa 0,0 l/m 0 min 0 min 0 W/m 3,2 km/h (1 Bft) 98,00 %
13.10.2023 04:08 17,2 C 16,1 C 12,8 C 98 % 1012,0 hPa 0,0 l/m 0 min 0 min 0 W/m 3,2 km/h (1 Bft) 96,51 %
13.10.2023 04:09 17,2 C 16,1 C 12,8 C 98 % 1012,0 hPa 0,0 l/m 0 min 0 min 0 W/m 3,2 km/h (1 Bft) 100,00 %
13.10.2023 04:10 17,2 C 16,1 C 12,8 C 98 % 1012,0 hPa 0,0 l/m 0 min 0 min 0 W/m 3,2 km/h (1 Bft) 100,00 %
13.10.2023 04:14 17,2 C 16,1 C 12,8 C 98 % 1011,9 hPa 0,2 l/m 0 min 0 min 0 W/m 0,0 km/h (0 Bft) 97,87 %
13.10.2023 04:16 17,2 C 16,1 C 12,8 C 98 % 1011,9 hPa 0,0 l/m 0 min 0 min 0 W/m 0,0 km/h (0 Bft) 95,74 %
13.10.2023 04:18 17,2 C 16,1 C 12,8 C 98 % 1011,9 hPa 0,0 l/m 0 min 0 min 0 W/m 3,2 km/h (1 Bft) 97,87 %
13.10.2023 04:20 17,2 C 16,1 C 12,8 C 98 % 1011,9 hPa 0,0 l/m 0 min 0 min 0 W/m 3,2 km/h (1 Bft) 95,83 %
13.10.2023 04:22 17,2 C 16,1 C 12,8 C 98 % 1011,8 hPa 0,0 l/m 0 min 0 min 0 W/m 3,2 km/h (1 Bft) 97,87 %
13.10.2023 04:24 17,2 C 16,1 C 12,8 C 98 % 1011,9 hPa 0,0 l/m 0 min 0 min 0 W/m 3,2 km/h (1 Bft) 97,83 %
13.10.2023 04:26 17,2 C 16,1 C 12,8 C 98 % 1011,8 hPa 0,0 l/m 0 min 0 min 0 W/m 3,2 km/h (1 Bft) 95,74 %
13.10.2023 04:28 17,2 C 16,1 C 12,8 C 98 % 1011,8 hPa 0,0 l/m 0 min 0 min 0 W/m 6,4 km/h (2 Bft) 97,87 %
13.10.2023 04:30 17,2 C 16,1 C 12,8 C 98 % 1011,9 hPa 0,0 l/m 0 min 0 min 0 W/m 0,0 km/h (0 Bft) 97,87 %
13.10.2023 04:32 17,2 C 16,1 C 12,8 C 98 % 1011,8 hPa 0,0 l/m 0 min 0 min 0 W/m 0,0 km/h (0 Bft) 97,87 %
13.10.2023 04:34 17,2 C 16,1 C 12,8 C 98 % 1011,9 hPa 0,0 l/m 0 min 0 min 0 W/m 0,0 km/h (0 Bft) 97,87 %
13.10.2023 04:36 17,2 C 16,1 C 12,8 C 98 % 1011,8 hPa 0,0 l/m 0 min 0 min 0 W/m 3,2 km/h (1 Bft) 97,83 %
13.10.2023 04:38 17,2 C 16,1 C 12,8 C 98 % 1011,7 hPa 0,0 l/m 0 min 2 min 0 W/m 0,0 km/h (0 Bft) 97,87 %
13.10.2023 04:40 17,2 C 16,1 C 12,8 C 98 % 1011,6 hPa 0,0 l/m 0 min 0 min 0 W/m 0,0 km/h (0 Bft) 97,87 %
13.10.2023 04:42 17,2 C 16,1 C 12,8 C 98 % 1011,6 hPa 0,0 l/m 0 min 0 min 0 W/m 0,0 km/h (0 Bft) 97,87 %
13.10.2023 04:44 17,2 C 16,1 C 12,8 C 98 % 1011,5 hPa 0,0 l/m 0 min 0 min 0 W/m 6,4 km/h (2 Bft) 93,62 %
13.10.2023 04:46 17,2 C 16,1 C 12,8 C 98 % 1011,5 hPa 0,0 l/m 0 min 0 min 0 W/m 0,0 km/h (0 Bft) 97,87 %
13.10.2023 04:48 17,2 C 16,1 C 12,8 C 98 % 1011,4 hPa 0,0 l/m 0 min 0 min 0 W/m 0,0 km/h (0 Bft) 97,87 %
13.10.2023 04:50 17,2 C 16,1 C 12,8 C 98 % 1011,4 hPa 0,0 l/m 0 min 2 min 0 W/m 0,0 km/h (0 Bft) 97,87 %
13.10.2023 04:52 17,2 C 16,1 C 12,8 C 98 % 1011,4 hPa 0,0 l/m 0 min 2 min 0 W/m 0,0 km/h (0 Bft) 100,00 %
13.10.2023 04:54 17,2 C 16,1 C 12,8 C 98 % 1011,4 hPa 0,0 l/m 0 min 0 min 0 W/m 0,0 km/h (0 Bft) 100,00 %
13.10.2023 04:56 17,2 C 16,1 C 12,8 C 98 % 1011,3 hPa 0,0 l/m 0 min 0 min 0 W/m 0,0 km/h (0 Bft) 100,00 %
13.10.2023 04:58 17,2 C 16,1 C 12,8 C 98 % 1011,3 hPa 0,0 l/m 0 min 0 min 0 W/m 0,0 km/h (0 Bft) 93,33 %
13.10.2023 05:00 17,2 C 16,1 C 12,8 C 98 % 1011,3 hPa 0,0 l/m 0 min 0 min 0 W/m 0,0 km/h (0 Bft) 95,74 %
13.10.2023 05:02 17,2 C 16,1 C 12,8 C 98 % 1011,3 hPa 0,0 l/m 0 min 2 min 0 W/m 0,0 km/h (0 Bft) 93,62 %
13.10.2023 05:04 17,2 C 16,1 C 12,8 C 98 % 1011,3 hPa 0,0 l/m 0 min 2 min 0 W/m 0,0 km/h (0 Bft) 96,00 %
13.10.2023 05:08 17,2 C 16,1 C 12,8 C 98 % 1011,3 hPa 0,0 l/m 0 min 4 min 0 W/m 0,0 km/h (0 Bft) 95,35 %
13.10.2023 05:09 17,2 C 16,1 C 12,8 C 98 % 1011,3 hPa 0,0 l/m 0 min 1 min 0 W/m 0,0 km/h (0 Bft) 91,30 %
13.10.2023 05:12 17,2 C 16,1 C 12,8 C 98 % 1011,1 hPa 0,2 l/m 0 min 3 min 0 W/m 0,0 km/h (0 Bft) 95,71 %
13.10.2023 05:14 17,2 C 16,1 C 12,8 C 98 % 1011,1 hPa 0,0 l/m 0 min 0 min 0 W/m 0,0 km/h (0 Bft) 95,74 %
13.10.2023 05:16 17,2 C 16,1 C 12,8 C 98 % 1011,0 hPa 0,0 l/m 0 min 0 min 0 W/m 0,0 km/h (0 Bft) 93,62 %
13.10.2023 05:18 17,2 C 16,1 C 12,8 C 98 % 1011,0 hPa 0,0 l/m 0 min 2 min 0 W/m 0,0 km/h (0 Bft) 95,74 %
13.10.2023 05:20 17,2 C 16,1 C 12,8 C 98 % 1011,0 hPa 0,0 l/m 0 min 2 min 0 W/m 0,0 km/h (0 Bft) 95,74 %
13.10.2023 05:22 17,2 C 16,1 C 12,8 C 98 % 1011,0 hPa 0,0 l/m 0 min 0 min 0 W/m 0,0 km/h (0 Bft) 95,74 %
13.10.2023 05:24 17,2 C 16,1 C 12,8 C 98 % 1011,0 hPa 0,0 l/m 0 min 0 min 0 W/m 0,0 km/h (0 Bft) 95,74 %
13.10.2023 05:26 17,2 C 16,1 C 12,8 C 98 % 1010,9 hPa 0,0 l/m 0 min 0 min 0 W/m 0,0 km/h (0 Bft) 95,74 %
13.10.2023 05:28 17,2 C 16,1 C 12,8 C 98 % 1010,9 hPa 0,0 l/m 0 min 0 min 0 W/m 0,0 km/h (0 Bft) 97,83 %
13.10.2023 05:30 17,2 C 16,1 C 12,8 C 98 % 1010,8 hPa 0,0 l/m 0 min 0 min 0 W/m 0,0 km/h (0 Bft) 97,87 %
13.10.2023 05:32 17,2 C 16,1 C 12,8 C 98 % 1010,9 hPa 0,0 l/m 0 min 0 min 0 W/m 0,0 km/h (0 Bft) 97,87 %
13.10.2023 05:34 17,2 C 16,1 C 12,8 C 98 % 1010,8 hPa 0,0 l/m 0 min 0 min 0 W/m 0,0 km/h (0 Bft) 97,87 %
13.10.2023 05:36 17,2 C 16,1 C 12,8 C 98 % 1010,7 hPa 0,0 l/m 0 min 2 min 0 W/m 0,0 km/h (0 Bft) 93,62 %
13.10.2023 05:38 17,3 C 16,1 C 12,8 C 98 % 1010,7 hPa 0,0 l/m 0 min 2 min 0 W/m 0,0 km/h (0 Bft) 97,87 %
13.10.2023 05:40 17,3 C 16,1 C 12,8 C 98 % 1010,7 hPa 0,0 l/m 0 min 2 min 0 W/m 0,0 km/h (0 Bft) 97,87 %
13.10.2023 05:42 17,3 C 16,1 C 12,8 C 98 % 1010,6 hPa 0,0 l/m 0 min 2 min 0 W/m 0,0 km/h (0 Bft) 97,87 %
13.10.2023 05:44 17,3 C 16,1 C 12,8 C 98 % 1010,6 hPa 0,0 l/m 0 min 0 min 0 W/m 0,0 km/h (0 Bft) 100,00 %
13.10.2023 05:46 17,3 C 16,1 C 12,8 C 98 % 1010,6 hPa 0,0 l/m 0 min 2 min 0 W/m 0,0 km/h (0 Bft) 100,00 %
13.10.2023 05:48 17,3 C 16,1 C 12,8 C 98 % 1010,5 hPa 0,0 l/m 0 min 0 min 0 W/m 3,2 km/h (1 Bft) 100,00 %
13.10.2023 05:50 17,3 C 16,1 C 12,8 C 98 % 1010,5 hPa 0,0 l/m 0 min 0 min 0 W/m 3,2 km/h (1 Bft) 100,00 %
13.10.2023 05:52 17,3 C 16,1 C 12,8 C 98 % 1010,5 hPa 0,0 l/m 0 min 0 min 0 W/m 6,4 km/h (2 Bft) 100,00 %
13.10.2023 05:54 17,3 C 16,1 C 12,8 C 98 % 1010,5 hPa 0,0 l/m 0 min 0 min 0 W/m 3,2 km/h (1 Bft) 98,11 %
13.10.2023 05:56 17,3 C 16,1 C 12,8 C 98 % 1010,4 hPa 0,0 l/m 0 min 0 min 0 W/m 6,4 km/h (2 Bft) 100,00 %
13.10.2023 05:58 17,3 C 16,1 C 12,8 C 98 % 1010,5 hPa 0,0 l/m 0 min 0 min 0 W/m 3,2 km/h (1 Bft) 100,00 %
13.10.2023 06:00 17,3 C 16,1 C 12,8 C 98 % 1010,5 hPa 0,0 l/m 0 min 0 min 0 W/m 0,0 km/h (0 Bft) 100,00 %
13.10.2023 06:02 17,3 C 16,1 C 12,8 C 98 % 1010,4 hPa 0,0 l/m 0 min 0 min 0 W/m 3,2 km/h (1 Bft) 100,00 %
13.10.2023 06:04 17,3 C 16,1 C 12,8 C 98 % 1010,3 hPa 0,0 l/m 0 min 0 min 0 W/m 3,2 km/h (1 Bft) 100,00 %
13.10.2023 06:05 17,3 C 16,1 C 12,8 C 98 % 1010,4 hPa 0,0 l/m 0 min 0 min 0 W/m 3,2 km/h (1 Bft) 100,00 %
13.10.2023 06:10 17,3 C 16,1 C 12,8 C 98 % 1010,3 hPa 0,0 l/m 0 min 0 min 0 W/m 6,4 km/h (2 Bft) 100,00 %
13.10.2023 06:12 17,3 C 16,1 C 12,8 C 98 % 1010,2 hPa 0,0 l/m 0 min 0 min 0 W/m 3,2 km/h (1 Bft) 100,00 %
13.10.2023 06:16 17,2 C 16,1 C 12,8 C 98 % 1010,2 hPa 0,0 l/m 0 min 0 min 0 W/m 6,4 km/h (2 Bft) 100,00 %
13.10.2023 06:18 17,2 C 16,1 C 12,8 C 98 % 1010,2 hPa 0,0 l/m 0 min 0 min 0 W/m 3,2 km/h (1 Bft) 100,00 %
13.10.2023 06:20 17,2 C 16,1 C 12,8 C 98 % 1010,1 hPa 0,0 l/m 0 min 0 min 0 W/m 3,2 km/h (1 Bft) 100,00 %
13.10.2023 06:22 17,2 C 16,1 C 12,8 C 98 % 1010,1 hPa 0,0 l/m 0 min 2 min 0 W/m 6,4 km/h (2 Bft) 100,00 %
13.10.2023 06:24 17,2 C 16,1 C 12,8 C 98 % 1010,0 hPa 0,0 l/m 0 min 0 min 0 W/m 12,9 km/h (3 Bft) 100,00 %
13.10.2023 06:26 17,2 C 16,1 C 12,8 C 98 % 1010,1 hPa 0,0 l/m 0 min 2 min 0 W/m 6,4 km/h (2 Bft) 100,00 %
13.10.2023 06:28 17,2 C 16,1 C 12,8 C 99 % 1010,0 hPa 0,0 l/m 0 min 0 min 0 W/m 3,2 km/h (1 Bft) 97,87 %
13.10.2023 06:30 17,2 C 16,1 C 12,8 C 99 % 1009,9 hPa 0,0 l/m 0 min 0 min 0 W/m 16,1 km/h (3 Bft) 100,00 %
13.10.2023 06:32 17,2 C 16,1 C 12,8 C 99 % 1009,8 hPa 0,0 l/m 0 min 2 min 0 W/m 3,2 km/h (1 Bft) 100,00 %
13.10.2023 06:34 17,2 C 16,1 C 12,8 C 99 % 1009,9 hPa 0,0 l/m 0 min 2 min 0 W/m 3,2 km/h (1 Bft) 100,00 %
13.10.2023 06:36 17,2 C 16,1 C 12,8 C 98 % 1009,8 hPa 0,2 l/m 0 min 2 min 0 W/m 3,2 km/h (1 Bft) 100,00 %
13.10.2023 06:38 17,2 C 16,1 C 12,8 C 98 % 1009,8 hPa 0,0 l/m 0 min 0 min 0 W/m 6,4 km/h (2 Bft) 100,00 %
13.10.2023 06:40 17,2 C 16,1 C 12,8 C 98 % 1009,8 hPa 0,0 l/m 0 min 2 min 0 W/m 6,4 km/h (2 Bft) 96,23 %
13.10.2023 06:42 17,2 C 16,1 C 12,8 C 98 % 1009,7 hPa 0,0 l/m 0 min 2 min 0 W/m 3,2 km/h (1 Bft) 97,37 %
13.10.2023 06:44 17,2 C 16,1 C 12,8 C 98 % 1009,8 hPa 0,0 l/m 0 min 2 min 0 W/m 6,4 km/h (2 Bft) 97,87 %
13.10.2023 06:46 17,2 C 16,1 C 12,8 C 98 % 1009,7 hPa 0,0 l/m 0 min 2 min 0 W/m 3,2 km/h (1 Bft) 100,00 %
13.10.2023 06:48 17,2 C 16,1 C 12,8 C 98 % 1009,7 hPa 0,0 l/m 0 min 2 min 0 W/m 0,0 km/h (0 Bft) 100,00 %
13.10.2023 06:50 17,2 C 16,1 C 12,8 C 99 % 1009,6 hPa 0,0 l/m 0 min 2 min 0 W/m 6,4 km/h (2 Bft) 95,65 %
13.10.2023 06:52 17,2 C 16,1 C 12,8 C 99 % 1009,6 hPa 0,0 l/m 0 min 2 min 0 W/m 3,2 km/h (1 Bft) 97,87 %
13.10.2023 06:54 17,2 C 16,1 C 12,8 C 99 % 1009,5 hPa 0,0 l/m 0 min 2 min 0 W/m 0,0 km/h (0 Bft) 95,74 %
13.10.2023 06:56 17,2 C 16,1 C 12,8 C 99 % 1009,5 hPa 0,2 l/m 0 min 2 min 0 W/m 0,0 km/h (0 Bft) 93,62 %
13.10.2023 06:58 17,2 C 16,1 C 12,8 C 99 % 1009,5 hPa 0,0 l/m 0 min 2 min 0 W/m 0,0 km/h (0 Bft) 95,12 %
13.10.2023 07:00 17,2 C 16,1 C 12,8 C 99 % 1009,5 hPa 0,0 l/m 0 min 2 min 0 W/m 0,0 km/h (0 Bft) 93,62 %
13.10.2023 07:02 17,2 C 16,7 C 12,8 C 99 % 1009,5 hPa 0,0 l/m 0 min 2 min 0 W/m 6,4 km/h (2 Bft) 93,62 %
13.10.2023 07:04 17,2 C 16,7 C 12,8 C 99 % 1009,5 hPa 0,0 l/m 0 min 0 min 0 W/m 3,2 km/h (1 Bft) 94,34 %
13.10.2023 07:08 17,3 C 16,7 C 12,8 C 99 % 1009,5 hPa 0,0 l/m 0 min 4 min 0 W/m 6,4 km/h (2 Bft) 94,00 %
13.10.2023 07:10 17,3 C 16,7 C 12,8 C 99 % 1009,5 hPa 0,0 l/m 0 min 2 min 0 W/m 3,2 km/h (1 Bft) 96,49 %
13.10.2023 07:12 17,3 C 16,7 C 12,8 C 99 % 1009,5 hPa 0,2 l/m 0 min 2 min 0 W/m 3,2 km/h (1 Bft) 91,43 %
13.10.2023 07:14 17,3 C 16,7 C 12,8 C 99 % 1009,4 hPa 0,0 l/m 0 min 2 min 0 W/m 3,2 km/h (1 Bft) 93,62 %
13.10.2023 07:16 17,3 C 16,7 C 12,8 C 99 % 1009,4 hPa 0,0 l/m 0 min 2 min 0 W/m 6,4 km/h (2 Bft) 95,74 %
13.10.2023 07:20 17,3 C 16,7 C 13,3 C 99 % 1009,4 hPa 0,2 l/m 0 min 4 min 0 W/m 6,4 km/h (2 Bft) 97,01 %
13.10.2023 07:22 17,3 C 16,7 C 13,3 C 99 % 1009,4 hPa 0,0 l/m 0 min 2 min 0 W/m 6,4 km/h (2 Bft) 93,55 %
13.10.2023 07:24 17,4 C 16,7 C 13,3 C 99 % 1009,4 hPa 0,0 l/m 0 min 2 min 0 W/m 12,9 km/h (3 Bft) 95,83 %
13.10.2023 07:26 17,4 C 16,7 C 13,3 C 99 % 1009,4 hPa 0,2 l/m 0 min 2 min 0 W/m 9,7 km/h (2 Bft) 93,62 %
13.10.2023 07:28 17,4 C 16,7 C 13,3 C 99 % 1009,4 hPa 0,2 l/m 0 min 2 min 0 W/m 6,4 km/h (2 Bft) 97,87 %
13.10.2023 07:30 17,4 C 16,7 C 13,3 C 99 % 1009,5 hPa 0,0 l/m 0 min 2 min 0 W/m 12,9 km/h (3 Bft) 97,87 %
13.10.2023 07:32 17,5 C 16,7 C 13,3 C 99 % 1009,5 hPa 0,2 l/m 0 min 2 min 0 W/m 6,4 km/h (2 Bft) 93,62 %
13.10.2023 07:34 17,5 C 16,7 C 13,3 C 99 % 1009,4 hPa 0,0 l/m 0 min 2 min 0 W/m 6,4 km/h (2 Bft) 95,74 %
13.10.2023 07:36 17,5 C 16,7 C 13,3 C 99 % 1009,4 hPa 0,2 l/m 0 min 2 min 0 W/m 6,4 km/h (2 Bft) 97,83 %
13.10.2023 07:38 17,6 C 16,7 C 13,3 C 99 % 1009,4 hPa 0,0 l/m 0 min 2 min 0 W/m 16,1 km/h (3 Bft) 93,62 %
13.10.2023 07:40 17,6 C 16,7 C 13,3 C 99 % 1009,5 hPa 0,0 l/m 0 min 2 min 0 W/m 12,9 km/h (3 Bft) 97,87 %
13.10.2023 07:42 17,6 C 16,7 C 13,3 C 99 % 1009,7 hPa 0,2 l/m 0 min 2 min 0 W/m 22,5 km/h (4 Bft) 100,00 %
13.10.2023 07:44 17,7 C 16,7 C 13,3 C 99 % 1009,7 hPa 0,0 l/m 0 min 2 min 0 W/m 16,1 km/h (3 Bft) 95,74 %
13.10.2023 07:46 17,7 C 16,7 C 13,3 C 99 % 1009,7 hPa 0,2 l/m 0 min 2 min 0 W/m 22,5 km/h (4 Bft) 97,87 %
13.10.2023 07:48 17,7 C 16,7 C 13,3 C 99 % 1009,9 hPa 0,0 l/m 0 min 2 min 0 W/m 16,1 km/h (3 Bft) 97,87 %
13.10.2023 07:50 17,7 C 16,7 C 13,3 C 99 % 1009,7 hPa 0,2 l/m 0 min 2 min 0 W/m 19,3 km/h (3 Bft) 93,48 %
13.10.2023 07:52 17,7 C 16,7 C 13,3 C 99 % 1009,5 hPa 0,2 l/m 0 min 2 min 0 W/m 32,2 km/h (5 Bft) 97,87 %
13.10.2023 07:54 17,7 C 16,7 C 13,3 C 99 % 1009,5 hPa 0,0 l/m 0 min 2 min 0 W/m 19,3 km/h (3 Bft) 96,36 %
13.10.2023 07:56 17,8 C 16,7 C 13,3 C 99 % 1009,5 hPa 0,0 l/m 0 min 2 min 0 W/m 22,5 km/h (4 Bft) 95,74 %
13.10.2023 07:58 17,8 C 16,7 C 13,3 C 99 % 1009,5 hPa 0,2 l/m 0 min 2 min 0 W/m 19,3 km/h (3 Bft) 97,62 %
13.10.2023 08:00 17,8 C 16,7 C 13,3 C 99 % 1009,5 hPa 0,0 l/m 0 min 2 min 0 W/m 16,1 km/h (3 Bft) 96,15 %
13.10.2023 08:02 17,8 C 16,7 C 13,3 C 99 % 1009,4 hPa 0,2 l/m 0 min 2 min 0 W/m 19,3 km/h (3 Bft) 96,88 %
13.10.2023 08:04 17,8 C 16,7 C 13,3 C 99 % 1009,4 hPa 0,0 l/m 0 min 2 min 0 W/m 19,3 km/h (3 Bft) 96,30 %
13.10.2023 08:08 17,7 C 16,7 C 13,3 C 99 % 1009,2 hPa 0,0 l/m 0 min 4 min 0 W/m 35,4 km/h (5 Bft) 96,88 %
13.10.2023 08:10 17,7 C 16,7 C 13,3 C 99 % 1009,3 hPa 0,2 l/m 0 min 2 min 0 W/m 16,1 km/h (3 Bft) 97,87 %
13.10.2023 08:12 17,7 C 16,7 C 13,3 C 99 % 1009,3 hPa 0,0 l/m 0 min 2 min 0 W/m 19,3 km/h (3 Bft) 97,87 %
13.10.2023 08:14 17,7 C 16,7 C 13,3 C 99 % 1009,1 hPa 0,0 l/m 0 min 2 min 0 W/m 19,3 km/h (3 Bft) 97,87 %
13.10.2023 08:16 17,7 C 16,7 C 13,3 C 99 % 1009,2 hPa 0,0 l/m 0 min 2 min 0 W/m 19,3 km/h (3 Bft) 97,87 %
13.10.2023 08:18 17,7 C 16,7 C 13,3 C 99 % 1009,2 hPa 0,0 l/m 0 min 2 min 0 W/m 12,9 km/h (3 Bft) 97,87 %
13.10.2023 08:20 17,7 C 16,7 C 13,3 C 99 % 1009,2 hPa 0,0 l/m 0 min 2 min 0 W/m 19,3 km/h (3 Bft) 91,30 %
13.10.2023 08:22 17,7 C 16,7 C 13,3 C 99 % 1009,1 hPa 0,2 l/m 0 min 0 min 5 W/m 16,1 km/h (3 Bft) 97,87 %
13.10.2023 08:24 17,7 C 16,7 C 13,3 C 99 % 1008,9 hPa 0,0 l/m 0 min 2 min 6 W/m 19,3 km/h (3 Bft) 97,87 %
13.10.2023 08:26 17,7 C 16,7 C 13,3 C 99 % 1008,9 hPa 0,0 l/m 0 min 2 min 7 W/m 12,9 km/h (3 Bft) 95,74 %
13.10.2023 08:28 17,8 C 16,7 C 13,3 C 99 % 1009,1 hPa 0,0 l/m 0 min 2 min 7 W/m 16,1 km/h (3 Bft) 97,87 %
13.10.2023 08:30 17,7 C 16,7 C 13,3 C 99 % 1009,0 hPa 0,0 l/m 0 min 2 min 6 W/m 12,9 km/h (3 Bft) 100,00 %
13.10.2023 08:32 17,7 C 16,7 C 13,3 C 99 % 1008,7 hPa 0,0 l/m 0 min 0 min 6 W/m 3,2 km/h (1 Bft) 100,00 %
13.10.2023 08:34 17,8 C 16,7 C 13,3 C 99 % 1008,8 hPa 0,0 l/m 0 min 0 min 9 W/m 12,9 km/h (3 Bft) 100,00 %
13.10.2023 08:36 17,8 C 16,7 C 13,3 C 99 % 1009,0 hPa 0,0 l/m 0 min 0 min 10 W/m 12,9 km/h (3 Bft) 100,00 %
13.10.2023 08:38 17,8 C 16,7 C 13,3 C 99 % 1009,0 hPa 0,0 l/m 0 min 0 min 11 W/m 12,9 km/h (3 Bft) 100,00 %
13.10.2023 08:40 17,8 C 16,7 C 13,3 C 99 % 1009,0 hPa 0,0 l/m 0 min 0 min 13 W/m 6,4 km/h (2 Bft) 100,00 %
13.10.2023 08:42 17,8 C 16,7 C 13,3 C 99 % 1009,0 hPa 0,0 l/m 0 min 0 min 16 W/m 12,9 km/h (3 Bft) 100,00 %
13.10.2023 08:44 17,8 C 16,7 C 13,3 C 99 % 1008,9 hPa 0,0 l/m 0 min 0 min 20 W/m 6,4 km/h (2 Bft) 95,74 %
13.10.2023 08:46 17,8 C 16,7 C 13,3 C 99 % 1008,9 hPa 0,0 l/m 0 min 0 min 20 W/m 6,4 km/h (2 Bft) 97,83 %
13.10.2023 08:48 17,8 C 16,7 C 13,3 C 99 % 1008,8 hPa 0,0 l/m 0 min 0 min 16 W/m 9,7 km/h (2 Bft) 100,00 %
13.10.2023 08:50 17,8 C 16,7 C 13,3 C 99 % 1008,7 hPa 0,0 l/m 0 min 0 min 17 W/m 6,4 km/h (2 Bft) 97,87 %
13.10.2023 08:52 17,8 C 16,7 C 13,3 C 99 % 1008,8 hPa 0,0 l/m 0 min 0 min 19 W/m 3,2 km/h (1 Bft) 95,74 %
13.10.2023 08:54 17,8 C 16,7 C 13,3 C 99 % 1008,7 hPa 0,0 l/m 0 min 0 min 22 W/m 3,2 km/h (1 Bft) 100,00 %
13.10.2023 08:56 17,8 C 16,7 C 13,3 C 99 % 1008,7 hPa 0,0 l/m 0 min 0 min 26 W/m 3,2 km/h (1 Bft) 95,74 %
13.10.2023 08:58 17,8 C 16,7 C 13,3 C 99 % 1008,8 hPa 0,0 l/m 0 min 0 min 35 W/m 3,2 km/h (1 Bft) 98,04 %
13.10.2023 09:00 17,8 C 16,7 C 13,3 C 99 % 1008,8 hPa 0,0 l/m 0 min 0 min 40 W/m 6,4 km/h (2 Bft) 97,83 %
13.10.2023 09:02 17,8 C 16,7 C 13,9 C 99 % 1008,8 hPa 0,0 l/m 0 min 0 min 42 W/m 3,2 km/h (1 Bft) 95,74 %
13.10.2023 09:04 17,8 C 16,7 C 13,9 C 99 % 1008,8 hPa 0,0 l/m 0 min 0 min 41 W/m 9,7 km/h (2 Bft) 97,92 %
13.10.2023 09:06 17,9 C 16,7 C 13,9 C 99 % 1008,8 hPa 0,0 l/m 0 min 0 min 40 W/m 3,2 km/h (1 Bft) 97,87 %
13.10.2023 09:08 17,9 C 17,2 C 13,9 C 99 % 1008,8 hPa 0,0 l/m 0 min 0 min 43 W/m 3,2 km/h (1 Bft) 97,87 %
13.10.2023 09:10 17,9 C 17,2 C 13,9 C 99 % 1008,8 hPa 0,0 l/m 0 min 0 min 48 W/m 6,4 km/h (2 Bft) 97,87 %
13.10.2023 09:12 17,9 C 17,2 C 13,9 C 99 % 1008,7 hPa 0,0 l/m 0 min 0 min 52 W/m 3,2 km/h (1 Bft) 93,62 %
13.10.2023 09:14 17,9 C 17,2 C 13,9 C 99 % 1008,7 hPa 0,0 l/m 0 min 0 min 55 W/m 6,4 km/h (2 Bft) 97,87 %
13.10.2023 09:16 17,9 C 17,2 C 13,9 C 99 % 1008,7 hPa 0,0 l/m 0 min 0 min 53 W/m 3,2 km/h (1 Bft) 97,87 %
13.10.2023 09:18 17,9 C 17,2 C 13,9 C 99 % 1008,7 hPa 0,0 l/m 0 min 0 min 52 W/m 6,4 km/h (2 Bft) 97,83 %
13.10.2023 09:20 17,9 C 17,2 C 13,9 C 99 % 1008,7 hPa 0,0 l/m 0 min 0 min 57 W/m 3,2 km/h (1 Bft) 85,11 %
13.10.2023 09:22 18,0 C 17,2 C 13,9 C 99 % 1008,7 hPa 0,0 l/m 0 min 0 min 58 W/m 6,4 km/h (2 Bft) 51,72 %
13.10.2023 09:24 18,0 C 17,2 C 13,9 C 99 % 1008,6 hPa 0,0 l/m 0 min 0 min 63 W/m 6,4 km/h (2 Bft) 100,00 %
13.10.2023 09:26 18,0 C 17,2 C 13,9 C 99 % 1008,7 hPa 0,0 l/m 0 min 0 min 74 W/m 6,4 km/h (2 Bft) 100,00 %
13.10.2023 09:28 18,1 C 17,2 C 13,9 C 100 % 1008,6 hPa 0,0 l/m 0 min 0 min 87 W/m 6,4 km/h (2 Bft) 100,00 %
13.10.2023 09:30 18,1 C 17,2 C 13,9 C 99 % 1008,6 hPa 0,0 l/m 0 min 0 min 92 W/m 6,4 km/h (2 Bft) 100,00 %
13.10.2023 09:32 18,1 C 17,2 C 13,9 C 100 % 1008,7 hPa 0,0 l/m 0 min 0 min 92 W/m 6,4 km/h (2 Bft) 100,00 %
13.10.2023 09:34 18,1 C 17,2 C 13,9 C 100 % 1008,6 hPa 0,0 l/m 0 min 0 min 88 W/m 6,4 km/h (2 Bft) 100,00 %
13.10.2023 09:36 18,1 C 17,2 C 13,9 C 100 % 1008,6 hPa 0,0 l/m 0 min 0 min 78 W/m 6,4 km/h (2 Bft) 97,87 %
13.10.2023 09:38 18,1 C 17,2 C 13,9 C 100 % 1008,6 hPa 0,0 l/m 0 min 0 min 71 W/m 12,9 km/h (3 Bft) 95,74 %
13.10.2023 09:40 18,1 C 17,2 C 13,9 C 99 % 1008,6 hPa 0,0 l/m 0 min 0 min 78 W/m 6,4 km/h (2 Bft) 95,74 %
13.10.2023 09:42 18,1 C 17,2 C 13,9 C 99 % 1008,6 hPa 0,0 l/m 0 min 0 min 86 W/m 6,4 km/h (2 Bft) 97,87 %
13.10.2023 09:44 18,1 C 17,2 C 13,9 C 99 % 1008,6 hPa 0,0 l/m 0 min 0 min 87 W/m 12,9 km/h (3 Bft) 97,87 %
13.10.2023 09:46 18,1 C 17,2 C 13,9 C 99 % 1008,6 hPa 0,0 l/m 0 min 0 min 91 W/m 6,4 km/h (2 Bft) 97,83 %
13.10.2023 09:48 18,1 C 17,2 C 13,9 C 99 % 1008,6 hPa 0,0 l/m 0 min 0 min 88 W/m 6,4 km/h (2 Bft) 95,74 %
13.10.2023 09:50 18,1 C 17,2 C 13,9 C 99 % 1008,5 hPa 0,0 l/m 0 min 0 min 84 W/m 16,1 km/h (3 Bft) 97,87 %
13.10.2023 09:52 18,1 C 17,8 C 13,9 C 99 % 1008,4 hPa 0,0 l/m 0 min 0 min 90 W/m 16,1 km/h (3 Bft) 93,62 %
13.10.2023 09:54 18,1 C 17,8 C 13,9 C 99 % 1008,5 hPa 0,0 l/m 0 min 0 min 95 W/m 6,4 km/h (2 Bft) 100,00 %
13.10.2023 09:56 18,1 C 17,8 C 13,9 C 99 % 1008,4 hPa 0,0 l/m 0 min 0 min 98 W/m 6,4 km/h (2 Bft) 95,74 %
13.10.2023 09:58 18,1 C 17,8 C 13,9 C 99 % 1008,4 hPa 0,0 l/m 0 min 0 min 96 W/m 6,4 km/h (2 Bft) 93,62 %
13.10.2023 10:00 18,1 C 17,8 C 13,9 C 99 % 1008,4 hPa 0,0 l/m 0 min 0 min 97 W/m 6,4 km/h (2 Bft) 97,87 %
13.10.2023 10:02 18,1 C 17,8 C 13,9 C 99 % 1008,4 hPa 0,0 l/m 0 min 0 min 106 W/m 12,9 km/h (3 Bft) 97,87 %
13.10.2023 10:04 18,2 C 18,3 C 13,9 C 99 % 1008,4 hPa 0,0 l/m 0 min 0 min 113 W/m 12,9 km/h (3 Bft) 97,62 %
13.10.2023 10:08 18,2 C 18,3 C 13,9 C 99 % 1008,2 hPa 0,0 l/m 0 min 0 min 111 W/m 16,1 km/h (3 Bft) 98,11 %
13.10.2023 10:10 18,2 C 18,3 C 13,9 C 99 % 1008,2 hPa 0,0 l/m 0 min 0 min 77 W/m 6,4 km/h (2 Bft) 97,14 %
13.10.2023 10:12 18,2 C 18,3 C 13,9 C 99 % 1008,2 hPa 0,0 l/m 0 min 0 min 84 W/m 12,9 km/h (3 Bft) 97,87 %
13.10.2023 10:14 18,2 C 18,3 C 13,9 C 99 % 1008,1 hPa 0,0 l/m 0 min 0 min 76 W/m 12,9 km/h (3 Bft) 95,74 %
13.10.2023 10:16 18,3 C 18,3 C 13,9 C 99 % 1008,1 hPa 0,0 l/m 0 min 0 min 75 W/m 12,9 km/h (3 Bft) 97,87 %
13.10.2023 10:18 18,3 C 18,3 C 13,9 C 99 % 1008,1 hPa 0,0 l/m 0 min 0 min 81 W/m 6,4 km/h (2 Bft) 97,83 %
13.10.2023 10:20 18,3 C 18,3 C 13,9 C 99 % 1008,1 hPa 0,0 l/m 0 min 0 min 82 W/m 6,4 km/h (2 Bft) 95,74 %
13.10.2023 10:22 18,3 C 18,3 C 13,9 C 99 % 1008,1 hPa 0,0 l/m 0 min 0 min 80 W/m 12,9 km/h (3 Bft) 95,74 %
13.10.2023 10:24 18,3 C 18,3 C 13,9 C 99 % 1008,0 hPa 0,0 l/m 0 min 0 min 102 W/m 6,4 km/h (2 Bft) 97,87 %
13.10.2023 10:26 18,3 C 18,3 C 13,9 C 99 % 1008,0 hPa 0,0 l/m 0 min 0 min 161 W/m 6,4 km/h (2 Bft) 100,00 %
13.10.2023 10:28 18,3 C 18,9 C 13,9 C 99 % 1008,1 hPa 0,0 l/m 0 min 0 min 146 W/m 12,9 km/h (3 Bft) 97,87 %
13.10.2023 10:30 18,4 C 18,9 C 14,4 C 99 % 1008,1 hPa 0,0 l/m 0 min 0 min 148 W/m 12,9 km/h (3 Bft) 97,87 %
13.10.2023 10:32 18,4 C 18,9 C 14,4 C 99 % 1008,1 hPa 0,0 l/m 0 min 0 min 125 W/m 19,3 km/h (3 Bft) 97,87 %
13.10.2023 10:34 18,4 C 18,9 C 14,4 C 99 % 1008,1 hPa 0,0 l/m 0 min 0 min 106 W/m 6,4 km/h (2 Bft) 100,00 %
13.10.2023 10:36 18,5 C 18,9 C 14,4 C 99 % 1008,0 hPa 0,0 l/m 0 min 0 min 100 W/m 16,1 km/h (3 Bft) 95,74 %
13.10.2023 10:38 18,5 C 18,9 C 14,4 C 99 % 1008,0 hPa 0,0 l/m 0 min 0 min 110 W/m 12,9 km/h (3 Bft) 97,87 %
13.10.2023 10:40 18,5 C 18,9 C 14,4 C 99 % 1007,9 hPa 0,0 l/m 0 min 0 min 122 W/m 6,4 km/h (2 Bft) 97,87 %
13.10.2023 10:42 18,6 C 18,9 C 14,4 C 99 % 1007,9 hPa 0,0 l/m 0 min 0 min 136 W/m 19,3 km/h (3 Bft) 97,87 %
13.10.2023 10:44 18,6 C 18,9 C 14,4 C 99 % 1007,9 hPa 0,0 l/m 0 min 0 min 143 W/m 6,4 km/h (2 Bft) 95,74 %
13.10.2023 10:46 18,6 C 19,4 C 14,4 C 99 % 1007,9 hPa 0,0 l/m 0 min 0 min 131 W/m 12,9 km/h (3 Bft) 95,74 %
13.10.2023 10:48 18,6 C 19,4 C 14,4 C 99 % 1007,9 hPa 0,0 l/m 0 min 0 min 156 W/m 12,9 km/h (3 Bft) 93,62 %
13.10.2023 10:50 18,6 C 19,4 C 14,4 C 99 % 1007,8 hPa 0,0 l/m 0 min 0 min 176 W/m 6,4 km/h (2 Bft) 93,48 %
13.10.2023 10:52 18,7 C 20,0 C 14,4 C 99 % 1007,8 hPa 0,0 l/m 0 min 0 min 192 W/m 12,9 km/h (3 Bft) 95,74 %
13.10.2023 10:54 18,7 C 20,0 C 14,4 C 99 % 1007,8 hPa 0,0 l/m 2 min 0 min 221 W/m 16,1 km/h (3 Bft) 96,36 %
13.10.2023 10:56 18,8 C 20,0 C 14,4 C 99 % 1007,8 hPa 0,0 l/m 0 min 0 min 172 W/m 22,5 km/h (4 Bft) 95,74 %
13.10.2023 10:58 18,9 C 20,0 C 14,4 C 99 % 1007,8 hPa 0,0 l/m 0 min 0 min 181 W/m 16,1 km/h (3 Bft) 95,92 %
13.10.2023 11:00 18,9 C 20,0 C 14,4 C 99 % 1007,8 hPa 0,0 l/m 0 min 0 min 161 W/m 12,9 km/h (3 Bft) 95,74 %
13.10.2023 11:02 18,9 C 20,0 C 14,4 C 98 % 1007,8 hPa 0,0 l/m 0 min 0 min 137 W/m 19,3 km/h (3 Bft) 95,35 %
13.10.2023 11:04 19,0 C 20,0 C 14,4 C 98 % 1007,8 hPa 0,0 l/m 0 min 0 min 146 W/m 29,0 km/h (5 Bft) 95,00 %
13.10.2023 11:08 19,1 C 20,0 C 14,4 C 97 % 1007,7 hPa 0,0 l/m 0 min 0 min 167 W/m 22,5 km/h (4 Bft) 92,52 %
13.10.2023 11:09 19,2 C 20,6 C 14,4 C 97 % 1007,7 hPa 0,0 l/m 1 min 0 min 212 W/m 16,1 km/h (3 Bft) 95,65 %
13.10.2023 11:14 19,5 C 20,6 C 13,9 C 95 % 1007,6 hPa 0,0 l/m 0 min 0 min 138 W/m 12,9 km/h (3 Bft) 94,87 %
13.10.2023 11:16 19,6 C 20,6 C 13,9 C 94 % 1007,6 hPa 0,0 l/m 0 min 0 min 206 W/m 19,3 km/h (3 Bft) 92,73 %
13.10.2023 11:18 19,7 C 20,6 C 13,9 C 92 % 1007,6 hPa 0,0 l/m 0 min 0 min 160 W/m 22,5 km/h (4 Bft) 100,00 %
13.10.2023 11:20 19,8 C 20,6 C 13,9 C 91 % 1007,6 hPa 0,0 l/m 0 min 0 min 147 W/m 25,7 km/h (4 Bft) 95,74 %
13.10.2023 11:22 19,9 C 20,6 C 13,9 C 90 % 1007,5 hPa 0,0 l/m 0 min 0 min 139 W/m 35,4 km/h (5 Bft) 95,74 %
13.10.2023 11:24 20,0 C 20,6 C 13,9 C 89 % 1007,4 hPa 0,0 l/m 0 min 0 min 142 W/m 19,3 km/h (3 Bft) 95,74 %
13.10.2023 11:26 20,1 C 20,6 C 13,9 C 88 % 1007,5 hPa 0,0 l/m 0 min 0 min 180 W/m 22,5 km/h (4 Bft) 100,00 %
13.10.2023 11:28 20,2 C 21,7 C 13,9 C 88 % 1007,4 hPa 0,0 l/m 0 min 0 min 204 W/m 25,7 km/h (4 Bft) 100,00 %
13.10.2023 11:30 20,3 C 22,8 C 14,4 C 87 % 1007,5 hPa 0,0 l/m 2 min 0 min 367 W/m 22,5 km/h (4 Bft) 100,00 %
13.10.2023 11:32 20,4 C 22,8 C 14,4 C 87 % 1007,5 hPa 0,0 l/m 2 min 0 min 344 W/m 25,7 km/h (4 Bft) 100,00 %
13.10.2023 11:34 20,6 C 22,2 C 14,4 C 86 % 1007,4 hPa 0,0 l/m 0 min 0 min 204 W/m 22,5 km/h (4 Bft) 100,00 %
13.10.2023 11:36 20,7 C 21,7 C 14,4 C 86 % 1007,3 hPa 0,0 l/m 0 min 0 min 176 W/m 16,1 km/h (3 Bft) 100,00 %
13.10.2023 11:38 20,7 C 22,2 C 14,4 C 85 % 1007,3 hPa 0,0 l/m 0 min 0 min 189 W/m 12,9 km/h (3 Bft) 100,00 %
13.10.2023 11:40 20,8 C 23,3 C 14,4 C 85 % 1007,2 hPa 0,0 l/m 2 min 0 min 379 W/m 22,5 km/h (4 Bft) 100,00 %
13.10.2023 11:42 21,0 C 23,9 C 14,4 C 84 % 1007,2 hPa 0,0 l/m 2 min 0 min 319 W/m 41,8 km/h (6 Bft) 100,00 %
13.10.2023 11:44 21,2 C 22,8 C 14,4 C 83 % 1007,3 hPa 0,0 l/m 2 min 0 min 267 W/m 29,0 km/h (5 Bft) 100,00 %
13.10.2023 11:46 21,3 C 22,8 C 14,4 C 82 % 1007,3 hPa 0,0 l/m 2 min 0 min 274 W/m 22,5 km/h (4 Bft) 100,00 %
13.10.2023 11:48 21,4 C 22,8 C 14,4 C 82 % 1007,3 hPa 0,0 l/m 2 min 0 min 237 W/m 29,0 km/h (5 Bft) 97,87 %
13.10.2023 11:50 21,5 C 22,2 C 14,4 C 81 % 1007,4 hPa 0,0 l/m 0 min 0 min 230 W/m 25,7 km/h (4 Bft) 100,00 %
13.10.2023 11:52 21,6 C 22,2 C 14,4 C 81 % 1007,4 hPa 0,0 l/m 2 min 0 min 237 W/m 16,1 km/h (3 Bft) 100,00 %
13.10.2023 11:54 21,7 C 22,2 C 14,4 C 81 % 1007,3 hPa 0,0 l/m 2 min 0 min 236 W/m 22,5 km/h (4 Bft) 100,00 %
13.10.2023 11:56 21,7 C 22,2 C 14,4 C 80 % 1007,3 hPa 0,0 l/m 0 min 0 min 225 W/m 32,2 km/h (5 Bft) 100,00 %
13.10.2023 11:58 21,8 C 22,2 C 14,4 C 79 % 1007,2 hPa 0,0 l/m 0 min 0 min 223 W/m 22,5 km/h (4 Bft) 100,00 %
13.10.2023 12:00 21,8 C 22,2 C 14,4 C 80 % 1007,2 hPa 0,0 l/m 0 min 0 min 216 W/m 29,0 km/h (5 Bft) 100,00 %
13.10.2023 12:02 21,9 C 22,2 C 14,4 C 79 % 1007,2 hPa 0,0 l/m 0 min 0 min 197 W/m 25,7 km/h (4 Bft) 100,00 %
13.10.2023 12:04 21,9 C 21,7 C 14,4 C 79 % 1007,2 hPa 0,0 l/m 0 min 0 min 177 W/m 29,0 km/h (5 Bft) 97,73 %
13.10.2023 12:08 21,9 C 21,7 C 14,4 C 79 % 1007,2 hPa 0,0 l/m 0 min 0 min 170 W/m 25,7 km/h (4 Bft) 100,00 %
13.10.2023 12:10 22,0 C 21,7 C 13,9 C 78 % 1007,2 hPa 0,0 l/m 0 min 0 min 162 W/m 22,5 km/h (4 Bft) 100,00 %
13.10.2023 12:12 22,0 C 21,7 C 13,9 C 78 % 1007,1 hPa 0,0 l/m 0 min 0 min 168 W/m 22,5 km/h (4 Bft) 100,00 %
13.10.2023 12:16 22,1 C 21,7 C 13,9 C 78 % 1007,2 hPa 0,0 l/m 0 min 0 min 169 W/m 29,0 km/h (5 Bft) 100,00 %
13.10.2023 12:18 22,1 C 21,7 C 13,9 C 78 % 1007,1 hPa 0,0 l/m 0 min 0 min 154 W/m 35,4 km/h (5 Bft) 100,00 %
13.10.2023 12:20 22,1 C 21,7 C 13,9 C 77 % 1007,0 hPa 0,0 l/m 0 min 0 min 156 W/m 22,5 km/h (4 Bft) 100,00 %
13.10.2023 12:22 22,1 C 21,7 C 13,9 C 78 % 1007,0 hPa 0,0 l/m 0 min 0 min 162 W/m 19,3 km/h (3 Bft) 97,87 %
13.10.2023 12:24 22,1 C 21,7 C 13,9 C 77 % 1007,0 hPa 0,0 l/m 0 min 0 min 155 W/m 29,0 km/h (5 Bft) 97,87 %
13.10.2023 12:26 22,1 C 21,7 C 13,9 C 77 % 1007,1 hPa 0,0 l/m 0 min 0 min 141 W/m 29,0 km/h (5 Bft) 97,87 %
13.10.2023 12:28 22,1 C 21,7 C 13,9 C 77 % 1006,9 hPa 0,0 l/m 0 min 0 min 141 W/m 22,5 km/h (4 Bft) 95,74 %
13.10.2023 12:30 22,1 C 21,7 C 13,9 C 77 % 1006,9 hPa 0,0 l/m 0 min 0 min 153 W/m 29,0 km/h (5 Bft) 95,74 %
13.10.2023 12:32 22,2 C 21,7 C 13,9 C 76 % 1006,9 hPa 0,0 l/m 0 min 0 min 163 W/m 19,3 km/h (3 Bft) 97,87 %
13.10.2023 12:34 22,2 C 21,7 C 13,9 C 77 % 1006,8 hPa 0,0 l/m 0 min 0 min 164 W/m 41,8 km/h (6 Bft) 97,83 %
13.10.2023 12:36 22,2 C 21,7 C 13,9 C 77 % 1006,9 hPa 0,0 l/m 0 min 0 min 166 W/m 22,5 km/h (4 Bft) 93,62 %
13.10.2023 12:38 22,2 C 21,7 C 14,4 C 77 % 1006,9 hPa 0,0 l/m 0 min 0 min 155 W/m 29,0 km/h (5 Bft) 97,87 %
13.10.2023 12:40 22,2 C 21,7 C 13,9 C 77 % 1006,8 hPa 0,0 l/m 0 min 0 min 131 W/m 41,8 km/h (6 Bft) 95,74 %
13.10.2023 12:42 22,3 C 21,7 C 14,4 C 76 % 1006,9 hPa 0,0 l/m 0 min 0 min 140 W/m 25,7 km/h (4 Bft) 97,87 %
13.10.2023 12:44 22,3 C 21,7 C 15,6 C 76 % 1006,8 hPa 0,0 l/m 0 min 0 min 155 W/m 25,7 km/h (4 Bft) 97,87 %
13.10.2023 12:46 22,3 C 22,2 C 16,1 C 76 % 1006,9 hPa 0,0 l/m 0 min 0 min 188 W/m 29,0 km/h (5 Bft) 91,49 %
13.10.2023 12:48 22,3 C 22,2 C 16,1 C 76 % 1006,9 hPa 0,0 l/m 0 min 0 min 200 W/m 19,3 km/h (3 Bft) 93,62 %
13.10.2023 12:50 22,3 C 22,2 C 16,7 C 76 % 1006,8 hPa 0,0 l/m 0 min 0 min 205 W/m 25,7 km/h (4 Bft) 95,65 %
13.10.2023 12:52 22,4 C 22,2 C 16,7 C 76 % 1006,8 hPa 0,0 l/m 0 min 0 min 192 W/m 22,5 km/h (4 Bft) 95,74 %
13.10.2023 12:54 22,4 C 22,2 C 16,7 C 76 % 1006,7 hPa 0,0 l/m 0 min 0 min 154 W/m 51,5 km/h (7 Bft) 97,67 %
13.10.2023 12:56 22,4 C 22,2 C 17,2 C 76 % 1006,6 hPa 0,0 l/m 0 min 0 min 162 W/m 22,5 km/h (4 Bft) 93,62 %
13.10.2023 12:58 22,5 C 22,2 C 17,2 C 76 % 1006,5 hPa 0,0 l/m 0 min 0 min 190 W/m 32,2 km/h (5 Bft) 95,74 %
13.10.2023 13:00 22,5 C 22,2 C 17,2 C 76 % 1006,6 hPa 0,0 l/m 0 min 0 min 185 W/m 25,7 km/h (4 Bft) 93,62 %
13.10.2023 13:02 22,6 C 22,2 C 17,2 C 76 % 1006,4 hPa 0,0 l/m 0 min 0 min 181 W/m 16,1 km/h (3 Bft) 95,74 %
13.10.2023 13:04 22,6 C 22,8 C 17,2 C 76 % 1006,5 hPa 0,0 l/m 0 min 0 min 198 W/m 35,4 km/h (5 Bft) 95,65 %
13.10.2023 13:08 22,6 C 22,8 C 17,8 C 76 % 1006,5 hPa 0,0 l/m 0 min 0 min 176 W/m 22,5 km/h (4 Bft) 97,85 %
13.10.2023 13:09 22,7 C 22,2 C 17,8 C 75 % 1006,5 hPa 0,0 l/m 0 min 0 min 153 W/m 22,5 km/h (4 Bft) 95,83 %
13.10.2023 13:10 22,7 C 22,2 C 17,8 C 76 % 1006,5 hPa 0,0 l/m 0 min 0 min 161 W/m 22,5 km/h (4 Bft) 100,00 %
13.10.2023 13:14 22,7 C 22,8 C 17,8 C 76 % 1006,3 hPa 0,0 l/m 0 min 0 min 179 W/m 25,7 km/h (4 Bft) 97,87 %
13.10.2023 13:16 22,8 C 22,8 C 17,8 C 75 % 1006,4 hPa 0,0 l/m 0 min 0 min 150 W/m 16,1 km/h (3 Bft) 95,83 %
13.10.2023 13:18 22,8 C 22,8 C 17,8 C 75 % 1006,3 hPa 0,0 l/m 0 min 0 min 147 W/m 22,5 km/h (4 Bft) 97,92 %
13.10.2023 13:20 22,9 C 22,8 C 17,8 C 75 % 1006,3 hPa 0,0 l/m 0 min 0 min 158 W/m 12,9 km/h (3 Bft) 97,83 %
13.10.2023 13:22 23,0 C 22,8 C 17,8 C 74 % 1006,3 hPa 0,0 l/m 0 min 0 min 172 W/m 25,7 km/h (4 Bft) 95,74 %
13.10.2023 13:24 23,1 C 22,8 C 18,3 C 74 % 1006,2 hPa 0,0 l/m 0 min 0 min 170 W/m 29,0 km/h (5 Bft) 100,00 %
13.10.2023 13:26 23,1 C 22,8 C 18,3 C 74 % 1006,2 hPa 0,0 l/m 0 min 0 min 159 W/m 22,5 km/h (4 Bft) 97,87 %
13.10.2023 13:28 23,2 C 23,3 C 18,3 C 74 % 1006,2 hPa 0,0 l/m 0 min 0 min 158 W/m 32,2 km/h (5 Bft) 100,00 %
13.10.2023 13:30 23,3 C 23,3 C 18,3 C 74 % 1006,2 hPa 0,0 l/m 0 min 0 min 167 W/m 29,0 km/h (5 Bft) 100,00 %
13.10.2023 13:32 23,3 C 23,3 C 18,3 C 74 % 1006,2 hPa 0,0 l/m 0 min 0 min 155 W/m 19,3 km/h (3 Bft) 100,00 %
13.10.2023 13:34 23,4 C 23,3 C 18,3 C 73 % 1006,1 hPa 0,0 l/m 0 min 0 min 185 W/m 35,4 km/h (5 Bft) 97,87 %
13.10.2023 13:36 23,4 C 23,3 C 18,3 C 73 % 1006,0 hPa 0,0 l/m 0 min 0 min 195 W/m 32,2 km/h (5 Bft) 97,83 %
13.10.2023 13:38 23,6 C 23,9 C 18,3 C 73 % 1005,9 hPa 0,0 l/m 0 min 0 min 219 W/m 19,3 km/h (3 Bft) 100,00 %
13.10.2023 13:40 23,6 C 23,9 C 18,3 C 73 % 1006,0 hPa 0,0 l/m 0 min 0 min 228 W/m 32,2 km/h (5 Bft) 97,87 %
13.10.2023 13:42 23,7 C 23,9 C 18,9 C 73 % 1006,0 hPa 0,0 l/m 0 min 0 min 239 W/m 22,5 km/h (4 Bft) 97,87 %
13.10.2023 13:44 23,7 C 23,9 C 18,9 C 72 % 1005,9 hPa 0,0 l/m 0 min 0 min 237 W/m 35,4 km/h (5 Bft) 97,87 %
13.10.2023 13:46 23,8 C 23,9 C 18,9 C 73 % 1006,0 hPa 0,0 l/m 0 min 0 min 227 W/m 19,3 km/h (3 Bft) 97,87 %
13.10.2023 13:48 23,8 C 23,9 C 18,9 C 72 % 1005,9 hPa 0,0 l/m 0 min 0 min 230 W/m 19,3 km/h (3 Bft) 97,87 %
13.10.2023 13:50 23,8 C 23,9 C 18,9 C 72 % 1005,9 hPa 0,0 l/m 0 min 0 min 230 W/m 35,4 km/h (5 Bft) 97,87 %
13.10.2023 13:52 23,8 C 23,9 C 18,9 C 71 % 1005,9 hPa 0,0 l/m 0 min 0 min 236 W/m 19,3 km/h (3 Bft) 97,83 %
13.10.2023 13:54 23,9 C 23,9 C 18,9 C 71 % 1005,9 hPa 0,0 l/m 0 min 0 min 245 W/m 29,0 km/h (5 Bft) 96,30 %
13.10.2023 13:56 23,9 C 23,9 C 18,9 C 71 % 1005,9 hPa 0,0 l/m 2 min 0 min 277 W/m 25,7 km/h (4 Bft) 97,87 %
13.10.2023 13:58 24,0 C 23,9 C 18,9 C 70 % 1005,9 hPa 0,0 l/m 0 min 0 min 242 W/m 29,0 km/h (5 Bft) 97,87 %
13.10.2023 14:00 24,1 C 23,9 C 18,9 C 70 % 1005,9 hPa 0,0 l/m 0 min 0 min 218 W/m 35,4 km/h (5 Bft) 95,74 %
13.10.2023 14:02 24,1 C 23,9 C 18,9 C 70 % 1005,9 hPa 0,0 l/m 0 min 0 min 185 W/m 35,4 km/h (5 Bft) 97,87 %
13.10.2023 14:04 24,1 C 23,9 C 18,9 C 70 % 1005,9 hPa 0,0 l/m 0 min 0 min 172 W/m 35,4 km/h (5 Bft) 100,00 %
13.10.2023 14:08 24,1 C 23,3 C 18,9 C 69 % 1005,9 hPa 0,0 l/m 0 min 0 min 148 W/m 29,0 km/h (5 Bft) 97,37 %
13.10.2023 14:09 24,1 C 23,3 C 18,9 C 69 % 1005,9 hPa 0,0 l/m 0 min 0 min 146 W/m 16,1 km/h (3 Bft) 100,00 %
13.10.2023 14:10 24,1 C 23,3 C 18,9 C 69 % 1005,9 hPa 0,0 l/m 0 min 0 min 146 W/m 35,4 km/h (5 Bft) 100,00 %
13.10.2023 14:14 24,1 C 23,3 C 18,9 C 68 % 1005,8 hPa 0,0 l/m 0 min 0 min 150 W/m 25,7 km/h (4 Bft) 97,87 %
13.10.2023 14:16 24,1 C 23,3 C 18,9 C 67 % 1005,9 hPa 0,0 l/m 0 min 0 min 148 W/m 25,7 km/h (4 Bft) 97,87 %
13.10.2023 14:18 24,1 C 23,3 C 18,9 C 68 % 1005,8 hPa 0,0 l/m 0 min 0 min 149 W/m 22,5 km/h (4 Bft) 97,87 %
13.10.2023 14:20 24,1 C 23,3 C 18,9 C 68 % 1005,7 hPa 0,0 l/m 0 min 0 min 148 W/m 19,3 km/h (3 Bft) 97,83 %
13.10.2023 14:22 24,1 C 23,3 C 18,9 C 68 % 1005,7 hPa 0,0 l/m 0 min 0 min 142 W/m 19,3 km/h (3 Bft) 97,87 %
13.10.2023 14:24 24,0 C 23,3 C 18,9 C 68 % 1005,7 hPa 0,0 l/m 0 min 0 min 145 W/m 25,7 km/h (4 Bft) 97,87 %
13.10.2023 14:26 24,1 C 23,3 C 18,9 C 67 % 1005,7 hPa 0,0 l/m 0 min 0 min 161 W/m 22,5 km/h (4 Bft) 97,87 %
13.10.2023 14:28 24,1 C 23,9 C 18,9 C 68 % 1005,7 hPa 0,0 l/m 0 min 0 min 174 W/m 29,0 km/h (5 Bft) 97,87 %
13.10.2023 14:30 24,1 C 23,9 C 18,9 C 68 % 1005,7 hPa 0,0 l/m 0 min 0 min 184 W/m 22,5 km/h (4 Bft) 97,87 %
13.10.2023 14:32 24,1 C 23,9 C 18,9 C 68 % 1005,6 hPa 0,0 l/m 0 min 0 min 183 W/m 22,5 km/h (4 Bft) 97,87 %
13.10.2023 14:34 24,1 C 23,9 C 18,9 C 68 % 1005,6 hPa 0,0 l/m 0 min 0 min 179 W/m 25,7 km/h (4 Bft) 97,87 %
13.10.2023 14:36 24,1 C 23,9 C 18,9 C 67 % 1005,6 hPa 0,0 l/m 0 min 0 min 169 W/m 25,7 km/h (4 Bft) 100,00 %
13.10.2023 14:38 24,1 C 23,9 C 18,9 C 66 % 1005,5 hPa 0,0 l/m 0 min 0 min 156 W/m 38,6 km/h (5 Bft) 100,00 %
13.10.2023 14:40 24,1 C 23,3 C 18,9 C 66 % 1005,5 hPa 0,0 l/m 0 min 0 min 142 W/m 29,0 km/h (5 Bft) 97,87 %
13.10.2023 14:42 24,1 C 23,3 C 18,9 C 66 % 1005,6 hPa 0,0 l/m 0 min 0 min 127 W/m 22,5 km/h (4 Bft) 100,00 %
13.10.2023 14:44 24,1 C 23,3 C 18,9 C 66 % 1005,5 hPa 0,0 l/m 0 min 0 min 123 W/m 35,4 km/h (5 Bft) 100,00 %
13.10.2023 14:46 24,1 C 23,3 C 18,9 C 65 % 1005,7 hPa 0,0 l/m 0 min 0 min 116 W/m 32,2 km/h (5 Bft) 100,00 %
13.10.2023 14:48 24,1 C 23,3 C 18,9 C 65 % 1005,6 hPa 0,0 l/m 0 min 0 min 114 W/m 22,5 km/h (4 Bft) 100,00 %
13.10.2023 14:50 24,1 C 23,3 C 18,9 C 66 % 1005,6 hPa 0,0 l/m 0 min 0 min 121 W/m 29,0 km/h (5 Bft) 97,87 %
13.10.2023 14:52 24,1 C 23,3 C 18,9 C 66 % 1005,6 hPa 0,0 l/m 0 min 0 min 110 W/m 19,3 km/h (3 Bft) 95,65 %
13.10.2023 14:54 24,1 C 23,3 C 18,9 C 66 % 1005,6 hPa 0,0 l/m 0 min 0 min 112 W/m 25,7 km/h (4 Bft) 94,64 %
13.10.2023 14:56 24,0 C 23,3 C 18,9 C 66 % 1005,7 hPa 0,0 l/m 0 min 0 min 119 W/m 25,7 km/h (4 Bft) 95,74 %
13.10.2023 14:58 24,0 C 23,3 C 18,9 C 65 % 1005,6 hPa 0,0 l/m 0 min 0 min 112 W/m 29,0 km/h (5 Bft) 95,74 %
13.10.2023 15:00 24,0 C 23,3 C 18,9 C 65 % 1005,6 hPa 0,0 l/m 0 min 0 min 108 W/m 25,7 km/h (4 Bft) 95,74 %
13.10.2023 15:02 24,0 C 23,3 C 18,9 C 65 % 1005,7 hPa 0,0 l/m 0 min 0 min 116 W/m 35,4 km/h (5 Bft) 95,74 %
13.10.2023 15:04 24,0 C 23,3 C 18,9 C 65 % 1005,6 hPa 0,0 l/m 0 min 0 min 127 W/m 25,7 km/h (4 Bft) 93,48 %
13.10.2023 15:08 24,0 C 23,3 C 18,9 C 65 % 1005,7 hPa 0,0 l/m 0 min 0 min 167 W/m 22,5 km/h (4 Bft) 95,74 %
13.10.2023 15:10 24,1 C 23,9 C 18,9 C 65 % 1005,7 hPa 0,0 l/m 2 min 0 min 226 W/m 32,2 km/h (5 Bft) 94,29 %
13.10.2023 15:12 24,1 C 23,9 C 18,9 C 65 % 1005,6 hPa 0,0 l/m 2 min 0 min 276 W/m 32,2 km/h (5 Bft) 93,62 %
13.10.2023 15:14 24,2 C 23,9 C 18,9 C 65 % 1005,6 hPa 0,0 l/m 0 min 0 min 198 W/m 32,2 km/h (5 Bft) 95,74 %
13.10.2023 15:16 24,2 C 23,9 C 18,9 C 65 % 1005,6 hPa 0,0 l/m 0 min 0 min 162 W/m 22,5 km/h (4 Bft) 95,74 %
13.10.2023 15:18 24,2 C 23,9 C 18,9 C 64 % 1005,6 hPa 0,0 l/m 0 min 0 min 133 W/m 25,7 km/h (4 Bft) 95,74 %
13.10.2023 15:20 24,2 C 23,3 C 18,9 C 64 % 1005,6 hPa 0,0 l/m 0 min 0 min 120 W/m 22,5 km/h (4 Bft) 95,74 %
13.10.2023 15:22 24,2 C 23,3 C 18,9 C 64 % 1005,6 hPa 0,0 l/m 0 min 0 min 122 W/m 25,7 km/h (4 Bft) 97,83 %
13.10.2023 15:24 24,2 C 23,3 C 18,9 C 64 % 1005,6 hPa 0,0 l/m 0 min 0 min 128 W/m 25,7 km/h (4 Bft) 97,87 %
13.10.2023 15:26 24,2 C 23,3 C 18,9 C 64 % 1005,6 hPa 0,0 l/m 0 min 0 min 120 W/m 29,0 km/h (5 Bft) 95,74 %
13.10.2023 15:28 24,2 C 23,3 C 18,9 C 63 % 1005,6 hPa 0,0 l/m 0 min 0 min 105 W/m 25,7 km/h (4 Bft) 97,87 %
13.10.2023 15:30 24,2 C 23,3 C 18,9 C 64 % 1005,5 hPa 0,0 l/m 0 min 0 min 100 W/m 35,4 km/h (5 Bft) 97,87 %
13.10.2023 15:32 24,1 C 23,3 C 18,9 C 63 % 1005,6 hPa 0,0 l/m 0 min 0 min 90 W/m 25,7 km/h (4 Bft) 95,74 %
13.10.2023 15:34 24,1 C 23,3 C 18,9 C 63 % 1005,5 hPa 0,0 l/m 0 min 0 min 70 W/m 22,5 km/h (4 Bft) 95,74 %
13.10.2023 15:36 24,1 C 23,3 C 18,9 C 63 % 1005,6 hPa 0,0 l/m 0 min 0 min 64 W/m 25,7 km/h (4 Bft) 97,83 %
13.10.2023 15:38 24,1 C 23,3 C 18,9 C 63 % 1005,6 hPa 0,0 l/m 0 min 0 min 62 W/m 19,3 km/h (3 Bft) 100,00 %
13.10.2023 15:40 24,1 C 23,3 C 18,9 C 63 % 1005,7 hPa 0,0 l/m 0 min 0 min 66 W/m 25,7 km/h (4 Bft) 100,00 %
13.10.2023 15:42 24,0 C 23,3 C 18,9 C 63 % 1005,6 hPa 0,0 l/m 0 min 0 min 89 W/m 12,9 km/h (3 Bft) 100,00 %
13.10.2023 15:44 24,0 C 23,3 C 18,9 C 63 % 1005,7 hPa 0,0 l/m 0 min 0 min 124 W/m 22,5 km/h (4 Bft) 97,87 %
13.10.2023 15:46 23,9 C 23,3 C 18,9 C 63 % 1005,6 hPa 0,0 l/m 0 min 0 min 115 W/m 16,1 km/h (3 Bft) 100,00 %
13.10.2023 15:48 23,9 C 23,3 C 18,9 C 64 % 1005,5 hPa 0,0 l/m 0 min 0 min 105 W/m 32,2 km/h (5 Bft) 100,00 %
13.10.2023 15:50 23,9 C 23,3 C 18,9 C 63 % 1005,6 hPa 0,0 l/m 0 min 0 min 98 W/m 32,2 km/h (5 Bft) 100,00 %
13.10.2023 15:52 24,0 C 23,3 C 18,9 C 63 % 1005,5 hPa 0,0 l/m 0 min 0 min 91 W/m 19,3 km/h (3 Bft) 97,83 %
13.10.2023 15:54 24,0 C 23,3 C 18,9 C 62 % 1005,4 hPa 0,0 l/m 0 min 0 min 85 W/m 22,5 km/h (4 Bft) 97,87 %
13.10.2023 15:56 24,0 C 23,3 C 18,9 C 62 % 1005,5 hPa 0,0 l/m 0 min 0 min 76 W/m 35,4 km/h (5 Bft) 100,00 %
13.10.2023 15:58 24,0 C 23,3 C 18,9 C 63 % 1005,4 hPa 0,0 l/m 0 min 0 min 70 W/m 29,0 km/h (5 Bft) 97,67 %
13.10.2023 16:00 23,9 C 23,3 C 18,9 C 63 % 1005,5 hPa 0,0 l/m 0 min 0 min 72 W/m 29,0 km/h (5 Bft) 100,00 %
13.10.2023 16:02 23,9 C 22,8 C 18,9 C 63 % 1005,4 hPa 0,0 l/m 0 min 0 min 68 W/m 22,5 km/h (4 Bft) 100,00 %
13.10.2023 16:04 23,9 C 22,8 C 18,9 C 63 % 1005,4 hPa 0,0 l/m 0 min 0 min 68 W/m 35,4 km/h (5 Bft) 100,00 %
13.10.2023 16:08 23,8 C 22,8 C 18,3 C 63 % 1005,4 hPa 0,0 l/m 0 min 0 min 62 W/m 25,7 km/h (4 Bft) 100,00 %
13.10.2023 16:09 23,8 C 22,8 C 18,3 C 64 % 1005,4 hPa 0,0 l/m 0 min 0 min 49 W/m 9,7 km/h (2 Bft) 100,00 %
13.10.2023 16:12 23,8 C 22,8 C 18,3 C 64 % 1005,3 hPa 0,0 l/m 0 min 0 min 47 W/m 22,5 km/h (4 Bft) 100,00 %
13.10.2023 16:14 23,7 C 22,8 C 18,3 C 64 % 1005,4 hPa 0,0 l/m 0 min 0 min 47 W/m 32,2 km/h (5 Bft) 100,00 %
13.10.2023 16:16 23,7 C 22,8 C 18,3 C 64 % 1005,3 hPa 0,0 l/m 0 min 0 min 46 W/m 29,0 km/h (5 Bft) 100,00 %
13.10.2023 16:18 23,6 C 22,8 C 18,3 C 64 % 1005,3 hPa 0,0 l/m 0 min 0 min 44 W/m 22,5 km/h (4 Bft) 97,87 %
13.10.2023 16:20 23,6 C 22,8 C 18,3 C 65 % 1005,2 hPa 0,0 l/m 0 min 0 min 42 W/m 22,5 km/h (4 Bft) 100,00 %
13.10.2023 16:22 23,6 C 22,2 C 18,3 C 65 % 1005,4 hPa 0,0 l/m 0 min 0 min 37 W/m 35,4 km/h (5 Bft) 100,00 %
13.10.2023 16:24 23,5 C 22,2 C 18,3 C 65 % 1005,2 hPa 0,0 l/m 0 min 0 min 29 W/m 16,1 km/h (3 Bft) 100,00 %
13.10.2023 16:26 23,4 C 22,2 C 18,3 C 65 % 1005,2 hPa 0,0 l/m 0 min 0 min 25 W/m 29,0 km/h (5 Bft) 100,00 %
13.10.2023 16:28 23,4 C 22,2 C 17,8 C 66 % 1005,3 hPa 0,0 l/m 0 min 0 min 25 W/m 22,5 km/h (4 Bft) 100,00 %
13.10.2023 16:30 23,4 C 22,2 C 17,8 C 66 % 1005,2 hPa 0,0 l/m 0 min 0 min 27 W/m 9,7 km/h (2 Bft) 97,87 %
13.10.2023 16:32 23,3 C 22,2 C 17,8 C 66 % 1005,1 hPa 0,0 l/m 0 min 0 min 28 W/m 22,5 km/h (4 Bft) 100,00 %
13.10.2023 16:34 23,3 C 22,2 C 17,8 C 66 % 1005,1 hPa 0,0 l/m 0 min 0 min 29 W/m 16,1 km/h (3 Bft) 97,87 %
13.10.2023 16:36 23,2 C 22,2 C 17,8 C 67 % 1005,2 hPa 0,0 l/m 0 min 0 min 30 W/m 19,3 km/h (3 Bft) 100,00 %
13.10.2023 16:38 23,2 C 22,2 C 17,8 C 66 % 1005,1 hPa 0,0 l/m 0 min 0 min 32 W/m 29,0 km/h (5 Bft) 100,00 %
13.10.2023 16:40 23,1 C 22,2 C 17,8 C 67 % 1005,2 hPa 0,0 l/m 0 min 0 min 31 W/m 19,3 km/h (3 Bft) 98,31 %
13.10.2023 16:42 23,1 C 22,2 C 17,8 C 67 % 1005,2 hPa 0,0 l/m 0 min 0 min 24 W/m 22,5 km/h (4 Bft) 100,00 %
13.10.2023 16:44 23,1 C 22,2 C 17,8 C 67 % 1005,2 hPa 0,0 l/m 0 min 0 min 19 W/m 19,3 km/h (3 Bft) 100,00 %
13.10.2023 16:46 23,1 C 22,2 C 17,8 C 66 % 1005,1 hPa 0,0 l/m 0 min 0 min 19 W/m 25,7 km/h (4 Bft) 100,00 %
13.10.2023 16:48 23,0 C 21,7 C 17,8 C 67 % 1005,0 hPa 0,0 l/m 0 min 0 min 19 W/m 16,1 km/h (3 Bft) 97,87 %
13.10.2023 16:50 22,9 C 21,7 C 17,8 C 67 % 1005,0 hPa 0,0 l/m 0 min 0 min 20 W/m 32,2 km/h (5 Bft) 91,49 %
13.10.2023 16:52 22,9 C 21,7 C 17,8 C 67 % 1005,0 hPa 0,0 l/m 0 min 0 min 21 W/m 12,9 km/h (3 Bft) 93,62 %
13.10.2023 16:54 22,9 C 21,7 C 17,8 C 67 % 1005,0 hPa 0,0 l/m 0 min 0 min 20 W/m 16,1 km/h (3 Bft) 95,74 %
13.10.2023 16:56 22,9 C 21,7 C 17,8 C 67 % 1005,1 hPa 0,0 l/m 0 min 0 min 19 W/m 19,3 km/h (3 Bft) 91,84 %
13.10.2023 16:58 22,8 C 21,7 C 17,8 C 67 % 1005,1 hPa 0,0 l/m 0 min 0 min 18 W/m 25,7 km/h (4 Bft) 95,65 %
13.10.2023 17:00 22,8 C 21,7 C 17,8 C 67 % 1005,1 hPa 0,0 l/m 0 min 0 min 18 W/m 25,7 km/h (4 Bft) 93,62 %
13.10.2023 17:02 22,8 C 21,7 C 17,8 C 67 % 1005,1 hPa 0,0 l/m 0 min 0 min 18 W/m 29,0 km/h (5 Bft) 95,65 %
13.10.2023 17:04 22,8 C 21,7 C 17,8 C 67 % 1005,0 hPa 0,0 l/m 0 min 0 min 18 W/m 35,4 km/h (5 Bft) 94,00 %
13.10.2023 17:08 22,8 C 21,7 C 17,8 C 67 % 1005,0 hPa 0,0 l/m 0 min 0 min 20 W/m 35,4 km/h (5 Bft) 95,79 %
13.10.2023 17:10 22,7 C 21,7 C 17,8 C 67 % 1005,1 hPa 0,0 l/m 0 min 0 min 20 W/m 16,1 km/h (3 Bft) 94,29 %
13.10.2023 17:12 22,7 C 21,7 C 17,2 C 67 % 1004,9 hPa 0,0 l/m 0 min 0 min 18 W/m 29,0 km/h (5 Bft) 95,74 %
13.10.2023 17:14 22,7 C 21,7 C 17,2 C 67 % 1005,0 hPa 0,0 l/m 0 min 0 min 18 W/m 25,7 km/h (4 Bft) 93,62 %
13.10.2023 17:16 22,7 C 21,7 C 17,2 C 67 % 1005,1 hPa 0,0 l/m 0 min 0 min 19 W/m 29,0 km/h (5 Bft) 95,74 %
13.10.2023 17:20 22,6 C 21,7 C 17,2 C 67 % 1005,0 hPa 0,0 l/m 0 min 0 min 20 W/m 22,5 km/h (4 Bft) 97,25 %
13.10.2023 17:22 22,6 C 21,7 C 17,2 C 67 % 1005,1 hPa 0,0 l/m 0 min 0 min 18 W/m 19,3 km/h (3 Bft) 94,12 %
13.10.2023 17:24 22,6 C 21,7 C 17,2 C 67 % 1005,0 hPa 0,0 l/m 0 min 0 min 18 W/m 25,7 km/h (4 Bft) 97,87 %
13.10.2023 17:26 22,6 C 21,7 C 17,2 C 67 % 1005,1 hPa 0,0 l/m 0 min 0 min 20 W/m 25,7 km/h (4 Bft) 97,87 %
13.10.2023 17:28 22,6 C 21,7 C 17,2 C 67 % 1005,2 hPa 0,0 l/m 0 min 0 min 22 W/m 41,8 km/h (6 Bft) 97,87 %
13.10.2023 17:30 22,6 C 21,7 C 17,2 C 67 % 1005,1 hPa 0,0 l/m 0 min 0 min 21 W/m 25,7 km/h (4 Bft) 94,29 %
13.10.2023 17:32 22,6 C 21,7 C 17,2 C 67 % 1005,1 hPa 0,0 l/m 0 min 0 min 21 W/m 25,7 km/h (4 Bft) 95,74 %
13.10.2023 17:34 22,6 C 21,7 C 17,2 C 67 % 1005,1 hPa 0,0 l/m 0 min 0 min 24 W/m 41,8 km/h (6 Bft) 95,74 %
13.10.2023 17:36 22,6 C 21,7 C 17,2 C 67 % 1005,1 hPa 0,0 l/m 0 min 0 min 25 W/m 35,4 km/h (5 Bft) 96,15 %
13.10.2023 17:38 22,6 C 21,7 C 17,2 C 67 % 1005,1 hPa 0,0 l/m 0 min 0 min 25 W/m 25,7 km/h (4 Bft) 95,74 %
13.10.2023 17:40 22,6 C 21,7 C 17,2 C 67 % 1005,1 hPa 0,0 l/m 0 min 0 min 21 W/m 19,3 km/h (3 Bft) 93,62 %
13.10.2023 17:42 22,6 C 21,7 C 17,2 C 67 % 1005,1 hPa 0,0 l/m 0 min 0 min 15 W/m 25,7 km/h (4 Bft) 95,74 %
13.10.2023 17:44 22,6 C 21,7 C 17,2 C 67 % 1005,0 hPa 0,0 l/m 0 min 0 min 12 W/m 19,3 km/h (3 Bft) 95,74 %
13.10.2023 17:46 22,6 C 21,7 C 17,2 C 67 % 1005,0 hPa 0,0 l/m 0 min 0 min 12 W/m 22,5 km/h (4 Bft) 95,74 %
13.10.2023 17:48 22,5 C 21,7 C 17,2 C 67 % 1004,8 hPa 0,0 l/m 0 min 0 min 12 W/m 38,6 km/h (5 Bft) 97,87 %
13.10.2023 17:50 22,5 C 21,7 C 17,2 C 67 % 1004,8 hPa 0,0 l/m 0 min 0 min 12 W/m 25,7 km/h (4 Bft) 97,83 %
13.10.2023 17:52 22,4 C 21,1 C 17,2 C 67 % 1004,9 hPa 0,0 l/m 0 min 0 min 17 W/m 32,2 km/h (5 Bft) 97,87 %
13.10.2023 17:54 22,4 C 21,1 C 17,2 C 67 % 1004,8 hPa 0,0 l/m 0 min 0 min 18 W/m 19,3 km/h (3 Bft) 96,23 %
13.10.2023 17:56 22,4 C 21,7 C 17,2 C 67 % 1004,8 hPa 0,0 l/m 0 min 0 min 19 W/m 19,3 km/h (3 Bft) 97,87 %
13.10.2023 17:58 22,4 C 21,7 C 17,2 C 67 % 1004,8 hPa 0,0 l/m 0 min 0 min 20 W/m 9,7 km/h (2 Bft) 95,74 %
13.10.2023 18:00 22,4 C 21,1 C 17,2 C 67 % 1004,6 hPa 0,0 l/m 0 min 0 min 18 W/m 22,5 km/h (4 Bft) 97,87 %
13.10.2023 18:02 22,4 C 21,1 C 17,2 C 67 % 1004,7 hPa 0,0 l/m 0 min 0 min 13 W/m 25,7 km/h (4 Bft) 97,83 %
13.10.2023 18:04 22,4 C 21,1 C 17,2 C 67 % 1004,8 hPa 0,0 l/m 0 min 0 min 11 W/m 22,5 km/h (4 Bft) 97,78 %
13.10.2023 18:08 22,4 C 21,1 C 17,2 C 67 % 1004,7 hPa 0,0 l/m 0 min 0 min 11 W/m 29,0 km/h (5 Bft) 97,87 %
13.10.2023 18:10 22,3 C 21,1 C 17,2 C 67 % 1004,7 hPa 0,0 l/m 0 min 0 min 6 W/m 19,3 km/h (3 Bft) 97,62 %
13.10.2023 18:12 22,3 C 21,1 C 17,2 C 67 % 1004,7 hPa 0,0 l/m 0 min 0 min 5 W/m 19,3 km/h (3 Bft) 98,00 %
13.10.2023 18:16 22,3 C 21,1 C 17,2 C 67 % 1004,6 hPa 0,0 l/m 0 min 0 min 0 W/m 32,2 km/h (5 Bft) 98,94 %
13.10.2023 18:18 22,3 C 21,1 C 17,2 C 67 % 1004,6 hPa 0,0 l/m 0 min 0 min 0 W/m 22,5 km/h (4 Bft) 97,87 %
13.10.2023 18:20 22,3 C 21,1 C 17,2 C 67 % 1004,6 hPa 0,0 l/m 0 min 0 min 0 W/m 19,3 km/h (3 Bft) 97,83 %
13.10.2023 18:22 22,2 C 21,1 C 17,2 C 67 % 1004,6 hPa 0,0 l/m 0 min 0 min 0 W/m 32,2 km/h (5 Bft) 100,00 %
13.10.2023 18:24 22,2 C 21,1 C 16,7 C 68 % 1004,6 hPa 0,0 l/m 0 min 0 min 0 W/m 12,9 km/h (3 Bft) 100,00 %
13.10.2023 18:26 22,2 C 21,1 C 16,7 C 68 % 1004,6 hPa 0,0 l/m 0 min 0 min 0 W/m 25,7 km/h (4 Bft) 97,87 %
13.10.2023 18:28 22,2 C 21,1 C 16,7 C 68 % 1004,5 hPa 0,0 l/m 0 min 0 min 0 W/m 25,7 km/h (4 Bft) 100,00 %
13.10.2023 18:30 22,1 C 21,1 C 16,7 C 68 % 1004,5 hPa 0,0 l/m 0 min 0 min 0 W/m 19,3 km/h (3 Bft) 100,00 %
13.10.2023 18:32 22,1 C 21,1 C 16,7 C 68 % 1004,5 hPa 0,0 l/m 0 min 0 min 0 W/m 16,1 km/h (3 Bft) 100,00 %
13.10.2023 18:34 22,1 C 21,1 C 16,7 C 68 % 1004,4 hPa 0,0 l/m 0 min 0 min 0 W/m 25,7 km/h (4 Bft) 97,83 %
13.10.2023 18:36 22,1 C 21,1 C 16,7 C 68 % 1004,3 hPa 0,0 l/m 0 min 0 min 0 W/m 25,7 km/h (4 Bft) 100,00 %
13.10.2023 18:38 22,1 C 21,1 C 16,7 C 68 % 1004,4 hPa 0,0 l/m 0 min 0 min 0 W/m 19,3 km/h (3 Bft) 100,00 %
13.10.2023 18:40 22,0 C 21,1 C 16,7 C 68 % 1004,5 hPa 0,0 l/m 0 min 0 min 0 W/m 16,1 km/h (3 Bft) 97,87 %
13.10.2023 18:42 22,0 C 21,1 C 16,7 C 69 % 1004,5 hPa 0,0 l/m 0 min 0 min 0 W/m 12,9 km/h (3 Bft) 100,00 %
13.10.2023 18:44 21,9 C 20,6 C 16,7 C 69 % 1004,5 hPa 0,0 l/m 0 min 0 min 0 W/m 6,4 km/h (2 Bft) 97,87 %
13.10.2023 18:46 21,9 C 20,6 C 16,7 C 69 % 1004,5 hPa 0,0 l/m 0 min 0 min 0 W/m 16,1 km/h (3 Bft) 97,87 %
13.10.2023 18:48 21,9 C 20,6 C 16,7 C 69 % 1004,3 hPa 0,0 l/m 0 min 0 min 0 W/m 12,9 km/h (3 Bft) 97,87 %
13.10.2023 18:50 21,8 C 20,6 C 16,7 C 69 % 1004,4 hPa 0,0 l/m 0 min 0 min 0 W/m 16,1 km/h (3 Bft) 97,92 %
13.10.2023 18:52 21,8 C 20,6 C 16,7 C 70 % 1004,4 hPa 0,0 l/m 0 min 0 min 0 W/m 16,1 km/h (3 Bft) 97,87 %
13.10.2023 18:54 21,8 C 20,6 C 16,7 C 70 % 1004,4 hPa 0,0 l/m 0 min 0 min 0 W/m 16,1 km/h (3 Bft) 97,87 %
13.10.2023 18:56 21,7 C 20,6 C 16,7 C 70 % 1004,3 hPa 0,0 l/m 0 min 0 min 0 W/m 32,2 km/h (5 Bft) 97,92 %
13.10.2023 18:58 21,7 C 20,6 C 16,7 C 70 % 1004,4 hPa 0,0 l/m 0 min 0 min 0 W/m 19,3 km/h (3 Bft) 95,65 %
13.10.2023 19:00 21,7 C 20,6 C 16,7 C 70 % 1004,3 hPa 0,0 l/m 0 min 0 min 0 W/m 22,5 km/h (4 Bft) 97,87 %
13.10.2023 19:02 21,7 C 20,6 C 16,7 C 70 % 1004,2 hPa 0,0 l/m 0 min 0 min 0 W/m 41,8 km/h (6 Bft) 97,87 %
13.10.2023 19:04 21,7 C 20,6 C 16,7 C 70 % 1004,3 hPa 0,0 l/m 0 min 0 min 0 W/m 19,3 km/h (3 Bft) 97,67 %
13.10.2023 19:08 21,7 C 20,6 C 16,1 C 71 % 1004,3 hPa 0,0 l/m 0 min 4 min 0 W/m 16,1 km/h (3 Bft) 96,12 %
13.10.2023 19:09 21,7 C 20,6 C 16,1 C 72 % 1004,3 hPa 0,0 l/m 0 min 1 min 0 W/m 16,1 km/h (3 Bft) 95,83 %
13.10.2023 19:10 21,6 C 20,6 C 15,6 C 72 % 1004,3 hPa 0,0 l/m 0 min 1 min 0 W/m 22,5 km/h (4 Bft) 100,00 %
13.10.2023 19:14 21,6 C 20,0 C 15,0 C 73 % 1004,2 hPa 0,0 l/m 0 min 4 min 0 W/m 16,1 km/h (3 Bft) 98,11 %
13.10.2023 19:16 21,5 C 20,0 C 14,4 C 73 % 1004,1 hPa 0,0 l/m 0 min 2 min 0 W/m 16,1 km/h (3 Bft) 97,87 %
13.10.2023 19:18 21,4 C 20,0 C 13,9 C 74 % 1004,1 hPa 0,0 l/m 0 min 2 min 0 W/m 12,9 km/h (3 Bft) 97,87 %
13.10.2023 19:20 21,3 C 20,0 C 13,3 C 74 % 1004,1 hPa 0,0 l/m 0 min 2 min 0 W/m 22,5 km/h (4 Bft) 97,87 %
13.10.2023 19:22 21,3 C 19,4 C 13,3 C 75 % 1004,2 hPa 0,0 l/m 0 min 2 min 0 W/m 19,3 km/h (3 Bft) 97,83 %
13.10.2023 19:24 21,2 C 19,4 C 13,3 C 75 % 1004,2 hPa 0,0 l/m 0 min 2 min 0 W/m 16,1 km/h (3 Bft) 100,00 %
13.10.2023 19:26 21,1 C 19,4 C 13,3 C 76 % 1004,2 hPa 0,0 l/m 0 min 2 min 0 W/m 9,7 km/h (2 Bft) 100,00 %
13.10.2023 19:28 21,1 C 19,4 C 13,3 C 76 % 1004,2 hPa 0,0 l/m 0 min 2 min 0 W/m 19,3 km/h (3 Bft) 100,00 %
13.10.2023 19:30 20,9 C 19,4 C 13,3 C 76 % 1004,2 hPa 0,0 l/m 0 min 2 min 0 W/m 22,5 km/h (4 Bft) 100,00 %
13.10.2023 19:32 20,8 C 19,4 C 13,3 C 77 % 1004,2 hPa 0,0 l/m 0 min 2 min 0 W/m 6,4 km/h (2 Bft) 100,00 %
13.10.2023 19:34 20,8 C 19,4 C 13,3 C 77 % 1004,1 hPa 0,0 l/m 0 min 2 min 0 W/m 6,4 km/h (2 Bft) 100,00 %
13.10.2023 19:36 20,8 C 18,9 C 13,3 C 78 % 1004,2 hPa 0,0 l/m 0 min 2 min 0 W/m 16,1 km/h (3 Bft) 97,87 %
13.10.2023 19:38 20,7 C 18,9 C 13,3 C 77 % 1004,2 hPa 0,0 l/m 0 min 2 min 0 W/m 22,5 km/h (4 Bft) 100,00 %
13.10.2023 19:40 20,6 C 19,4 C 13,3 C 78 % 1004,1 hPa 0,2 l/m 0 min 2 min 0 W/m 19,3 km/h (3 Bft) 97,87 %
13.10.2023 19:42 20,6 C 19,4 C 13,3 C 78 % 1004,2 hPa 0,0 l/m 0 min 2 min 0 W/m 22,5 km/h (4 Bft) 97,87 %
13.10.2023 19:44 20,5 C 19,4 C 13,3 C 78 % 1004,1 hPa 0,0 l/m 0 min 2 min 0 W/m 19,3 km/h (3 Bft) 97,87 %
13.10.2023 19:46 20,4 C 19,4 C 13,3 C 78 % 1004,2 hPa 0,0 l/m 0 min 2 min 0 W/m 22,5 km/h (4 Bft) 100,00 %
13.10.2023 19:48 20,4 C 18,9 C 13,3 C 79 % 1004,1 hPa 0,0 l/m 0 min 2 min 0 W/m 19,3 km/h (3 Bft) 97,87 %
13.10.2023 19:50 20,4 C 18,9 C 13,3 C 79 % 1004,1 hPa 0,0 l/m 0 min 2 min 0 W/m 16,1 km/h (3 Bft) 100,00 %
13.10.2023 19:52 20,3 C 18,9 C 13,3 C 79 % 1004,1 hPa 0,0 l/m 0 min 0 min 0 W/m 29,0 km/h (5 Bft) 97,83 %
13.10.2023 19:54 20,3 C 19,4 C 13,3 C 79 % 1004,1 hPa 0,0 l/m 0 min 2 min 0 W/m 16,1 km/h (3 Bft) 97,37 %
13.10.2023 19:56 20,3 C 19,4 C 13,3 C 79 % 1003,9 hPa 0,0 l/m 0 min 0 min 0 W/m 22,5 km/h (4 Bft) 97,87 %
13.10.2023 19:58 20,4 C 19,4 C 13,3 C 78 % 1003,9 hPa 0,0 l/m 0 min 2 min 0 W/m 19,3 km/h (3 Bft) 95,74 %
13.10.2023 20:00 20,4 C 19,4 C 13,3 C 78 % 1003,9 hPa 0,0 l/m 0 min 2 min 0 W/m 19,3 km/h (3 Bft) 97,83 %
13.10.2023 20:02 20,4 C 19,4 C 13,3 C 78 % 1004,0 hPa 0,0 l/m 0 min 2 min 0 W/m 25,7 km/h (4 Bft) 95,74 %
13.10.2023 20:04 20,5 C 19,4 C 13,9 C 78 % 1003,8 hPa 0,0 l/m 0 min 2 min 0 W/m 22,5 km/h (4 Bft) 98,04 %
13.10.2023 20:08 20,6 C 19,4 C 13,9 C 78 % 1003,7 hPa 0,0 l/m 0 min 0 min 0 W/m 32,2 km/h (5 Bft) 96,97 %
13.10.2023 20:09 20,6 C 19,4 C 13,9 C 78 % 1003,8 hPa 0,0 l/m 0 min 0 min 0 W/m 25,7 km/h (4 Bft) 100,00 %
13.10.2023 20:10 20,6 C 19,4 C 13,9 C 78 % 1003,8 hPa 0,0 l/m 0 min 0 min 0 W/m 32,2 km/h (5 Bft) 100,00 %
13.10.2023 20:14 20,6 C 19,4 C 14,4 C 78 % 1003,6 hPa 0,0 l/m 0 min 4 min 0 W/m 22,5 km/h (4 Bft) 97,83 %
13.10.2023 20:16 20,6 C 19,4 C 14,4 C 78 % 1003,6 hPa 0,0 l/m 0 min 2 min 0 W/m 22,5 km/h (4 Bft) 95,74 %
13.10.2023 20:18 20,6 C 19,4 C 14,4 C 78 % 1003,6 hPa 0,0 l/m 0 min 0 min 0 W/m 25,7 km/h (4 Bft) 95,74 %
13.10.2023 20:20 20,6 C 19,4 C 14,4 C 78 % 1003,6 hPa 0,0 l/m 0 min 2 min 0 W/m 19,3 km/h (3 Bft) 93,62 %
13.10.2023 20:22 20,6 C 19,4 C 14,4 C 78 % 1003,5 hPa 0,0 l/m 0 min 0 min 0 W/m 19,3 km/h (3 Bft) 95,74 %
13.10.2023 20:24 20,6 C 19,4 C 15,0 C 78 % 1003,5 hPa 0,0 l/m 0 min 0 min 0 W/m 25,7 km/h (4 Bft) 95,74 %
13.10.2023 20:26 20,6 C 19,4 C 15,0 C 78 % 1003,5 hPa 0,0 l/m 0 min 0 min 0 W/m 29,0 km/h (5 Bft) 95,74 %
13.10.2023 20:28 20,6 C 19,4 C 15,0 C 78 % 1003,5 hPa 0,0 l/m 0 min 2 min 0 W/m 25,7 km/h (4 Bft) 95,65 %
13.10.2023 20:30 20,6 C 19,4 C 15,0 C 77 % 1003,4 hPa 0,0 l/m 0 min 0 min 0 W/m 35,4 km/h (5 Bft) 95,74 %
13.10.2023 20:32 20,7 C 19,4 C 15,0 C 77 % 1003,4 hPa 0,0 l/m 0 min 0 min 0 W/m 32,2 km/h (5 Bft) 95,74 %
13.10.2023 20:34 20,7 C 19,4 C 15,0 C 77 % 1003,4 hPa 0,0 l/m 0 min 2 min 0 W/m 29,0 km/h (5 Bft) 95,74 %
13.10.2023 20:35 20,7 C 19,4 C 14,4 C 77 % 1003,4 hPa 0,0 l/m 0 min 0 min 0 W/m 32,2 km/h (5 Bft) 97,37 %
13.10.2023 20:38 20,7 C 18,9 C 14,4 C 77 % 1003,3 hPa 0,0 l/m 0 min 3 min 0 W/m 29,0 km/h (5 Bft) 96,77 %
13.10.2023 20:40 20,7 C 18,9 C 13,9 C 78 % 1003,3 hPa 0,0 l/m 0 min 2 min 0 W/m 19,3 km/h (3 Bft) 97,67 %
13.10.2023 20:42 20,7 C 18,9 C 13,3 C 78 % 1003,3 hPa 0,0 l/m 0 min 2 min 0 W/m 19,3 km/h (3 Bft) 95,74 %
13.10.2023 20:44 20,7 C 18,9 C 13,3 C 78 % 1003,3 hPa 0,0 l/m 0 min 2 min 0 W/m 35,4 km/h (5 Bft) 96,30 %
13.10.2023 20:46 20,6 C 18,9 C 13,3 C 78 % 1003,3 hPa 0,0 l/m 0 min 2 min 0 W/m 38,6 km/h (5 Bft) 95,74 %
13.10.2023 20:48 20,6 C 18,9 C 13,3 C 78 % 1003,2 hPa 0,0 l/m 0 min 2 min 0 W/m 22,5 km/h (4 Bft) 91,49 %
13.10.2023 20:50 20,6 C 18,9 C 13,3 C 79 % 1003,3 hPa 0,0 l/m 0 min 2 min 0 W/m 19,3 km/h (3 Bft) 93,62 %
13.10.2023 20:52 20,6 C 18,9 C 13,3 C 79 % 1003,1 hPa 0,0 l/m 0 min 2 min 0 W/m 19,3 km/h (3 Bft) 93,62 %
13.10.2023 20:54 20,5 C 18,9 C 13,3 C 79 % 1003,1 hPa 0,0 l/m 0 min 2 min 0 W/m 38,6 km/h (5 Bft) 93,75 %
13.10.2023 20:56 20,4 C 18,3 C 13,3 C 79 % 1003,0 hPa 0,2 l/m 0 min 2 min 0 W/m 19,3 km/h (3 Bft) 93,75 %
13.10.2023 20:58 20,4 C 18,3 C 12,8 C 80 % 1002,9 hPa 0,0 l/m 0 min 2 min 0 W/m 22,5 km/h (4 Bft) 95,74 %
13.10.2023 21:00 20,3 C 18,3 C 12,8 C 80 % 1002,9 hPa 0,0 l/m 0 min 2 min 0 W/m 25,7 km/h (4 Bft) 95,74 %
13.10.2023 21:02 20,3 C 18,9 C 13,3 C 80 % 1002,9 hPa 0,0 l/m 0 min 2 min 0 W/m 19,3 km/h (3 Bft) 95,83 %
13.10.2023 21:04 20,3 C 18,9 C 12,8 C 80 % 1003,0 hPa 0,0 l/m 0 min 2 min 0 W/m 29,0 km/h (5 Bft) 95,56 %
13.10.2023 21:08 20,2 C 18,9 C 12,8 C 80 % 1002,6 hPa 0,0 l/m 0 min 4 min 0 W/m 35,4 km/h (5 Bft) 96,70 %
13.10.2023 21:10 20,2 C 18,9 C 12,8 C 81 % 1002,5 hPa 0,0 l/m 0 min 2 min 0 W/m 25,7 km/h (4 Bft) 97,87 %
13.10.2023 21:12 20,2 C 18,9 C 12,8 C 81 % 1002,6 hPa 0,0 l/m 0 min 0 min 0 W/m 29,0 km/h (5 Bft) 100,00 %
13.10.2023 21:14 20,2 C 18,9 C 13,3 C 81 % 1002,5 hPa 0,0 l/m 0 min 0 min 0 W/m 19,3 km/h (3 Bft) 97,87 %
13.10.2023 21:16 20,2 C 18,9 C 13,3 C 81 % 1002,6 hPa 0,0 l/m 0 min 0 min 0 W/m 22,5 km/h (4 Bft) 97,83 %
13.10.2023 21:18 20,2 C 18,9 C 13,3 C 81 % 1002,6 hPa 0,0 l/m 0 min 0 min 0 W/m 16,1 km/h (3 Bft) 100,00 %
13.10.2023 21:20 20,2 C 18,9 C 13,9 C 80 % 1002,4 hPa 0,0 l/m 0 min 0 min 0 W/m 16,1 km/h (3 Bft) 100,00 %
13.10.2023 21:22 20,2 C 19,4 C 13,9 C 80 % 1002,4 hPa 0,0 l/m 0 min 0 min 0 W/m 25,7 km/h (4 Bft) 100,00 %
13.10.2023 21:24 20,2 C 19,4 C 14,4 C 80 % 1002,4 hPa 0,0 l/m 0 min 0 min 0 W/m 16,1 km/h (3 Bft) 100,00 %
13.10.2023 21:26 20,2 C 19,4 C 14,4 C 80 % 1002,4 hPa 0,0 l/m 0 min 0 min 0 W/m 25,7 km/h (4 Bft) 100,00 %
13.10.2023 21:28 20,2 C 19,4 C 15,0 C 80 % 1002,3 hPa 0,0 l/m 0 min 0 min 0 W/m 22,5 km/h (4 Bft) 100,00 %
13.10.2023 21:30 20,3 C 19,4 C 15,0 C 79 % 1002,3 hPa 0,0 l/m 0 min 0 min 0 W/m 25,7 km/h (4 Bft) 100,00 %
13.10.2023 21:32 20,3 C 18,9 C 13,9 C 79 % 1002,2 hPa 0,0 l/m 0 min 2 min 0 W/m 38,6 km/h (5 Bft) 100,00 %
13.10.2023 21:34 20,4 C 18,9 C 13,3 C 80 % 1002,3 hPa 0,0 l/m 0 min 2 min 0 W/m 25,7 km/h (4 Bft) 100,00 %
13.10.2023 21:36 20,4 C 17,8 C 13,3 C 80 % 1002,5 hPa 0,0 l/m 0 min 2 min 0 W/m 41,8 km/h (6 Bft) 100,00 %
13.10.2023 21:38 20,4 C 17,8 C 13,3 C 80 % 1002,6 hPa 0,0 l/m 0 min 2 min 0 W/m 29,0 km/h (5 Bft) 95,74 %
13.10.2023 21:40 20,4 C 17,2 C 12,8 C 81 % 1002,6 hPa 0,4 l/m 0 min 2 min 0 W/m 19,3 km/h (3 Bft) 100,00 %
13.10.2023 21:42 20,3 C 16,7 C 12,8 C 82 % 1002,7 hPa 0,4 l/m 0 min 2 min 0 W/m 32,2 km/h (5 Bft) 100,00 %
13.10.2023 21:44 20,1 C 16,1 C 12,8 C 83 % 1002,8 hPa 0,0 l/m 0 min 2 min 0 W/m 35,4 km/h (5 Bft) 100,00 %
13.10.2023 21:46 19,9 C 16,1 C 12,8 C 84 % 1002,8 hPa 0,2 l/m 0 min 2 min 0 W/m 45,1 km/h (6 Bft) 100,00 %
13.10.2023 21:48 19,7 C 16,1 C 12,8 C 85 % 1002,5 hPa 0,0 l/m 0 min 2 min 0 W/m 19,3 km/h (3 Bft) 100,00 %
13.10.2023 21:50 19,6 C 16,1 C 12,8 C 85 % 1002,4 hPa 0,0 l/m 0 min 2 min 0 W/m 19,3 km/h (3 Bft) 97,87 %
13.10.2023 21:52 19,4 C 16,1 C 12,8 C 86 % 1002,4 hPa 0,0 l/m 0 min 2 min 0 W/m 19,3 km/h (3 Bft) 97,87 %
13.10.2023 21:54 19,3 C 16,7 C 12,8 C 86 % 1002,5 hPa 0,0 l/m 0 min 2 min 0 W/m 12,9 km/h (3 Bft) 97,87 %
13.10.2023 21:56 19,2 C 16,1 C 12,8 C 87 % 1002,7 hPa 0,6 l/m 0 min 2 min 0 W/m 19,3 km/h (3 Bft) 100,00 %
13.10.2023 21:58 19,1 C 16,1 C 12,8 C 88 % 1002,6 hPa 0,2 l/m 0 min 2 min 0 W/m 22,5 km/h (4 Bft) 100,00 %
13.10.2023 22:00 19,0 C 16,1 C 12,8 C 88 % 1002,7 hPa 0,2 l/m 0 min 2 min 0 W/m 16,1 km/h (3 Bft) 100,00 %
13.10.2023 22:02 18,9 C 16,1 C 12,8 C 89 % 1002,8 hPa 0,2 l/m 0 min 2 min 0 W/m 25,7 km/h (4 Bft) 100,00 %
13.10.2023 22:04 18,8 C 16,1 C 12,8 C 89 % 1002,8 hPa 0,0 l/m 0 min 2 min 0 W/m 25,7 km/h (4 Bft) 100,00 %
13.10.2023 22:08 18,6 C 16,1 C 12,8 C 90 % 1002,6 hPa 0,4 l/m 0 min 4 min 0 W/m 35,4 km/h (5 Bft) 100,00 %
13.10.2023 22:09 18,6 C 16,1 C 12,8 C 90 % 1002,6 hPa 0,2 l/m 0 min 1 min 0 W/m 22,5 km/h (4 Bft) 100,00 %
13.10.2023 22:10 18,6 C 16,1 C 12,8 C 91 % 1002,6 hPa 0,4 l/m 0 min 1 min 0 W/m 35,4 km/h (5 Bft) 100,00 %
13.10.2023 22:14 18,5 C 16,1 C 12,8 C 91 % 1002,7 hPa 0,0 l/m 0 min 4 min 0 W/m 9,7 km/h (2 Bft) 100,00 %
13.10.2023 22:16 18,4 C 16,1 C 12,8 C 91 % 1002,7 hPa 0,0 l/m 0 min 2 min 0 W/m 6,4 km/h (2 Bft) 100,00 %
13.10.2023 22:18 18,4 C 16,7 C 12,8 C 92 % 1002,6 hPa 0,0 l/m 0 min 2 min 0 W/m 6,4 km/h (2 Bft) 97,87 %
13.10.2023 22:20 18,4 C 16,1 C 12,8 C 92 % 1002,5 hPa 0,0 l/m 0 min 2 min 0 W/m 3,2 km/h (1 Bft) 100,00 %
13.10.2023 22:22 18,4 C 16,7 C 12,8 C 92 % 1002,4 hPa 0,0 l/m 0 min 0 min 0 W/m 12,9 km/h (3 Bft) 97,87 %
13.10.2023 22:24 18,4 C 16,1 C 12,8 C 92 % 1002,5 hPa 0,0 l/m 0 min 2 min 0 W/m 6,4 km/h (2 Bft) 100,00 %
13.10.2023 22:26 18,4 C 16,1 C 12,8 C 92 % 1002,3 hPa 0,0 l/m 0 min 0 min 0 W/m 6,4 km/h (2 Bft) 97,87 %
13.10.2023 22:28 18,3 C 16,1 C 12,8 C 92 % 1002,3 hPa 0,0 l/m 0 min 0 min 0 W/m 12,9 km/h (3 Bft) 97,83 %
13.10.2023 22:30 18,3 C 16,1 C 12,8 C 93 % 1002,3 hPa 0,0 l/m 0 min 0 min 0 W/m 6,4 km/h (2 Bft) 97,87 %
13.10.2023 22:32 18,3 C 16,1 C 12,8 C 93 % 1002,2 hPa 0,0 l/m 0 min 0 min 0 W/m 3,2 km/h (1 Bft) 100,00 %
13.10.2023 22:34 18,3 C 16,1 C 12,8 C 93 % 1002,1 hPa 0,0 l/m 0 min 0 min 0 W/m 6,4 km/h (2 Bft) 100,00 %
13.10.2023 22:36 18,3 C 16,1 C 12,8 C 93 % 1002,1 hPa 0,0 l/m 0 min 0 min 0 W/m 3,2 km/h (1 Bft) 93,62 %
13.10.2023 22:38 18,3 C 16,1 C 12,8 C 93 % 1002,0 hPa 0,0 l/m 0 min 0 min 0 W/m 0,0 km/h (0 Bft) 95,74 %
13.10.2023 22:40 18,3 C 16,1 C 12,8 C 93 % 1001,9 hPa 0,0 l/m 0 min 0 min 0 W/m 3,2 km/h (1 Bft) 95,74 %
13.10.2023 22:42 18,2 C 16,1 C 12,8 C 93 % 1002,0 hPa 0,0 l/m 0 min 0 min 0 W/m 12,9 km/h (3 Bft) 95,65 %
13.10.2023 22:44 18,2 C 16,1 C 12,8 C 93 % 1001,9 hPa 0,0 l/m 0 min 0 min 0 W/m 3,2 km/h (1 Bft) 93,62 %
13.10.2023 22:46 18,2 C 16,1 C 12,8 C 93 % 1001,9 hPa 0,0 l/m 0 min 0 min 0 W/m 6,4 km/h (2 Bft) 93,62 %
13.10.2023 22:48 18,2 C 16,1 C 12,8 C 93 % 1001,8 hPa 0,0 l/m 0 min 0 min 0 W/m 6,4 km/h (2 Bft) 95,74 %
13.10.2023 22:50 18,2 C 16,7 C 12,8 C 93 % 1001,9 hPa 0,0 l/m 0 min 0 min 0 W/m 12,9 km/h (3 Bft) 95,74 %
13.10.2023 22:52 18,2 C 16,7 C 12,8 C 93 % 1001,9 hPa 0,0 l/m 0 min 0 min 0 W/m 19,3 km/h (3 Bft) 93,62 %
13.10.2023 22:54 18,2 C 16,7 C 12,8 C 93 % 1001,8 hPa 0,0 l/m 0 min 0 min 0 W/m 22,5 km/h (4 Bft) 95,83 %
13.10.2023 22:56 18,1 C 16,7 C 12,8 C 93 % 1001,9 hPa 0,0 l/m 0 min 2 min 0 W/m 19,3 km/h (3 Bft) 93,48 %
13.10.2023 22:58 18,1 C 16,7 C 12,8 C 93 % 1001,9 hPa 0,0 l/m 0 min 0 min 0 W/m 9,7 km/h (2 Bft) 95,74 %
13.10.2023 23:00 18,2 C 16,7 C 12,8 C 93 % 1001,8 hPa 0,0 l/m 0 min 0 min 0 W/m 16,1 km/h (3 Bft) 95,74 %
13.10.2023 23:02 18,2 C 16,7 C 12,8 C 93 % 1001,8 hPa 0,0 l/m 0 min 0 min 0 W/m 16,1 km/h (3 Bft) 95,74 %
13.10.2023 23:04 18,2 C 16,7 C 12,8 C 93 % 1001,9 hPa 0,0 l/m 0 min 0 min 0 W/m 19,3 km/h (3 Bft) 93,75 %
13.10.2023 23:08 18,3 C 17,2 C 12,8 C 93 % 1001,8 hPa 0,0 l/m 0 min 0 min 0 W/m 32,2 km/h (5 Bft) 96,81 %
13.10.2023 23:09 18,3 C 17,2 C 12,8 C 93 % 1001,8 hPa 0,0 l/m 0 min 0 min 0 W/m 19,3 km/h (3 Bft) 91,30 %
13.10.2023 23:10 18,3 C 17,2 C 12,8 C 93 % 1001,8 hPa 0,0 l/m 0 min 0 min 0 W/m 32,2 km/h (5 Bft) 99,12 %
13.10.2023 23:14 18,4 C 17,2 C 12,8 C 92 % 1001,7 hPa 0,0 l/m 0 min 0 min 0 W/m 19,3 km/h (3 Bft) 95,74 %
13.10.2023 23:16 18,6 C 17,2 C 12,8 C 91 % 1001,7 hPa 0,0 l/m 0 min 0 min 0 W/m 16,1 km/h (3 Bft) 91,49 %
13.10.2023 23:18 18,6 C 17,2 C 12,8 C 91 % 1001,7 hPa 0,0 l/m 0 min 0 min 0 W/m 25,7 km/h (4 Bft) 93,62 %
13.10.2023 23:20 18,7 C 17,8 C 12,8 C 90 % 1001,6 hPa 0,0 l/m 0 min 0 min 0 W/m 32,2 km/h (5 Bft) 93,48 %
13.10.2023 23:22 18,8 C 17,2 C 12,8 C 90 % 1001,7 hPa 0,0 l/m 0 min 0 min 0 W/m 16,1 km/h (3 Bft) 97,87 %
13.10.2023 23:24 18,8 C 17,8 C 12,8 C 90 % 1001,6 hPa 0,0 l/m 0 min 0 min 0 W/m 35,4 km/h (5 Bft) 97,87 %
13.10.2023 23:26 18,9 C 17,8 C 12,8 C 89 % 1001,7 hPa 0,0 l/m 0 min 0 min 0 W/m 22,5 km/h (4 Bft) 97,87 %
13.10.2023 23:28 18,9 C 17,8 C 12,8 C 89 % 1001,7 hPa 0,0 l/m 0 min 0 min 0 W/m 16,1 km/h (3 Bft) 97,87 %
13.10.2023 23:30 19,0 C 17,8 C 12,8 C 88 % 1001,7 hPa 0,0 l/m 0 min 0 min 0 W/m 29,0 km/h (5 Bft) 97,87 %
13.10.2023 23:32 19,1 C 17,8 C 12,8 C 88 % 1001,7 hPa 0,0 l/m 0 min 0 min 0 W/m 19,3 km/h (3 Bft) 95,74 %
13.10.2023 23:34 19,2 C 17,8 C 12,8 C 87 % 1001,7 hPa 0,0 l/m 0 min 0 min 0 W/m 22,5 km/h (4 Bft) 95,65 %
13.10.2023 23:36 19,2 C 17,8 C 12,8 C 87 % 1001,6 hPa 0,0 l/m 0 min 0 min 0 W/m 19,3 km/h (3 Bft) 97,87 %
13.10.2023 23:38 19,3 C 17,8 C 12,8 C 86 % 1001,5 hPa 0,0 l/m 0 min 0 min 0 W/m 22,5 km/h (4 Bft) 97,87 %
13.10.2023 23:40 19,4 C 18,3 C 12,8 C 86 % 1001,5 hPa 0,0 l/m 0 min 0 min 0 W/m 32,2 km/h (5 Bft) 97,87 %
13.10.2023 23:42 19,5 C 18,3 C 12,8 C 86 % 1001,4 hPa 0,0 l/m 0 min 0 min 0 W/m 22,5 km/h (4 Bft) 95,74 %
13.10.2023 23:44 19,6 C 18,3 C 12,8 C 85 % 1001,3 hPa 0,0 l/m 0 min 0 min 0 W/m 25,7 km/h (4 Bft) 97,87 %
13.10.2023 23:46 19,6 C 18,3 C 12,8 C 85 % 1001,3 hPa 0,0 l/m 0 min 0 min 0 W/m 29,0 km/h (5 Bft) 100,00 %
13.10.2023 23:48 19,7 C 18,3 C 12,8 C 84 % 1001,3 hPa 0,0 l/m 0 min 0 min 0 W/m 29,0 km/h (5 Bft) 97,87 %
13.10.2023 23:50 19,7 C 18,9 C 12,8 C 84 % 1001,4 hPa 0,0 l/m 0 min 0 min 0 W/m 25,7 km/h (4 Bft) 95,65 %
13.10.2023 23:52 19,8 C 18,9 C 12,8 C 84 % 1001,3 hPa 0,0 l/m 0 min 0 min 0 W/m 22,5 km/h (4 Bft) 100,00 %
13.10.2023 23:54 19,9 C 18,9 C 12,8 C 83 % 1001,4 hPa 0,0 l/m 0 min 0 min 0 W/m 41,8 km/h (6 Bft) 98,21 %
13.10.2023 23:56 19,9 C 18,9 C 12,8 C 83 % 1001,3 hPa 0,0 l/m 0 min 0 min 0 W/m 29,0 km/h (5 Bft) 97,92 %
13.10.2023 23:58 20,0 C 18,9 C 12,8 C 83 % 1001,2 hPa 0,0 l/m 0 min 0 min 0 W/m 22,5 km/h (4 Bft) 97,87 %
_ Min-Zeit 00:20 00:00 00:00 15:54 23:58 - - - - 02:48 09:22
Minimum _ 16,8 C 16,1 C 12,2 C 62 % 1001,2 hPa - - - - 0,0 km/h (0 Bft) 51,72 %
_ Max-Zeit 15:14 11:42 13:42 09:28 00:00 21:56 10:54 05:08 11:40 12:54 00:26
Maximum _ 24,2 C 23,9 C 18,9 C 100 % 1013,7 hPa 0,6 l/m 2 min 4 min 379 W/m 51,5 km/h
S-SW (7 Bft)
100,00 %
Durchschnitt _ 19,7 C 18,9 C 14,5 C 86 % 1007,6 hPa #7,2 l/m #27 min. #5:11 h 112 W/m 16,4 km/h (3 Bft) 97,36 %
© 2023 W. Hausmann